| time (UTC) | temp F | wind direction | speed MPH | gust MPH | rain 1hr in | rain 24hr in | rain mn in | humidity % | barometer mb |
| 20260506001631 | 82 | 312 | 4.0 | 12.0 | 0.00 | 0.00 | 0.00 | 29 | 1006.3 |
| 20260506001527 | 82 | 15 | 4.0 | 12.0 | 0.00 | 0.00 | 0.00 | 29 | 1006.3 |
| 20260506001431 | 82 | 350 | 5.0 | 12.0 | 0.00 | 0.00 | 0.00 | 29 | 1006.2 |
| 20260506001328 | 82 | 344 | 6.0 | 12.0 | 0.00 | 0.00 | 0.00 | 28 | 1006.2 |
| 20260506001239 | 82 | 29 | 5.0 | 12.0 | 0.00 | 0.00 | 0.00 | 29 | 1006.2 |
| 20260506001115 | 82 | 15 | 4.0 | 12.0 | 0.00 | 0.00 | 0.00 | 29 | 1006.2 |
| 20260506001012 | 82 | 50 | 5.0 | 12.0 | 0.00 | 0.00 | 0.00 | 29 | 1006.3 |
| 20260506000918 | 82 | 15 | 6.0 | 12.0 | 0.00 | 0.00 | 0.00 | 29 | 1006.3 |
| 20260506000815 | 82 | 15 | 5.0 | 12.0 | 0.00 | 0.00 | 0.00 | 29 | 1006.3 |
| 20260506000743 | 82 | 30 | 3.0 | 12.0 | 0.00 | 0.00 | 0.00 | 30 | 1006.2 |
| 20260506000618 | 82 | 102 | 2.0 | 12.0 | 0.00 | 0.00 | 0.00 | 29 | 1006.2 |
| 20260506000528 | 82 | 46 | 3.0 | 12.0 | 0.00 | 0.00 | 0.00 | 29 | 1006.2 |
| 20260506000425 | 82 | 66 | 5.0 | 12.0 | 0.00 | 0.00 | 0.00 | 30 | 1006.2 |
| 20260506000332 | 82 | 54 | 7.0 | 12.0 | 0.00 | 0.00 | 0.00 | 30 | 1006.2 |
| 20260506000229 | 82 | 45 | 5.0 | 12.0 | 0.00 | 0.00 | 0.00 | 30 | 1006.2 |
| 20260506000136 | 82 | 51 | 3.0 | 12.0 | 0.00 | 0.00 | 0.00 | 29 | 1006.2 |
| 20260506000032 | 82 | 53 | 2.0 | 10.0 | 0.00 | 0.00 | 0.00 | 29 | 1006.3 |
| 20260505235959 | 82 | 53 | 3.0 | 10.0 | 0.00 | 0.00 | 0.00 | 29 | 1006.2 |
| 20260505235820 | 82 | 27 | 2.0 | 10.0 | 0.00 | 0.00 | 0.00 | 29 | 1006.3 |
| 20260505235719 | 82 | 1 | 3.0 | 13.0 | 0.00 | 0.00 | 0.00 | 29 | 1006.2 |
| 20260505235624 | 82 | 44 | 4.0 | 13.0 | 0.00 | 0.00 | 0.00 | 30 | 1006.3 |
| 20260505235522 | 82 | 33 | 5.0 | 13.0 | 0.00 | 0.00 | 0.00 | 29 | 1006.3 |
| 20260505235449 | 82 | 354 | 4.0 | 13.0 | 0.00 | 0.00 | 0.00 | 29 | 1006.3 |
| 20260505235324 | 82 | 10 | 5.0 | 13.0 | 0.00 | 0.00 | 0.00 | 29 | 1006.2 |
| 20260505235230 | 82 | 19 | 6.0 | 13.0 | 0.00 | 0.00 | 0.00 | 30 | 1006.2 |
| 20260505235133 | 82 | 352 | 6.0 | 13.0 | 0.00 | 0.00 | 0.00 | 29 | 1006.2 |
| 20260505235026 | 82 | 21 | 7.0 | 14.0 | 0.00 | 0.00 | 0.00 | 29 | 1006.3 |
| 20260505234928 | 82 | 26 | 8.0 | 14.0 | 0.00 | 0.00 | 0.00 | 29 | 1006.3 |
| 20260505234855 | 82 | 50 | 8.0 | 17.0 | 0.00 | 0.00 | 0.00 | 29 | 1006.4 |
| 20260505234730 | 82 | 15 | 8.0 | 17.0 | 0.00 | 0.00 | 0.00 | 29 | 1006.4 |
| 20260505234629 | 82 | 22 | 6.0 | 17.0 | 0.00 | 0.00 | 0.00 | 29 | 1006.4 |
| 20260505234515 | 82 | 23 | 4.0 | 17.0 | 0.00 | 0.00 | 0.00 | 29 | 1006.3 |
| 20260505234412 | 82 | 356 | 5.0 | 17.0 | 0.00 | 0.00 | 0.00 | 29 | 1006.4 |
| 20260505234339 | 82 | 19 | 7.0 | 17.0 | 0.00 | 0.00 | 0.00 | 29 | 1006.4 |
| 20260505234217 | 82 | 43 | 8.0 | 17.0 | 0.00 | 0.00 | 0.00 | 29 | 1006.4 |
| 20260505234113 | 82 | 39 | 10.0 | 17.0 | 0.00 | 0.00 | 0.00 | 29 | 1006.4 |
| 20260505234017 | 82 | 28 | 10.0 | 17.0 | 0.00 | 0.00 | 0.00 | 29 | 1006.4 |
| 20260505233913 | 82 | 15 | 7.0 | 16.0 | 0.00 | 0.00 | 0.00 | 29 | 1006.3 |
| 20260505233823 | 82 | 48 | 5.0 | 13.0 | 0.00 | 0.00 | 0.00 | 29 | 1006.3 |
| 20260505233752 | 82 | 67 | 6.0 | 13.0 | 0.00 | 0.00 | 0.00 | 29 | 1006.3 |
| 20260505233626 | 82 | 38 | 8.0 | 13.0 | 0.00 | 0.00 | 0.00 | 29 | 1006.4 |
| 20260505233550 | 82 | 5 | 7.0 | 13.0 | 0.00 | 0.00 | 0.00 | 29 | 1006.4 |
| 20260505233427 | 82 | 356 | 8.0 | 13.0 | 0.00 | 0.00 | 0.00 | 29 | 1006.3 |
| 20260505233333 | 82 | 356 | 7.0 | 13.0 | 0.00 | 0.00 | 0.00 | 30 | 1006.4 |
| 20260505233229 | 82 | 351 | 5.0 | 13.0 | 0.00 | 0.00 | 0.00 | 30 | 1006.4 |
| 20260505233122 | 82 | 339 | 4.0 | 13.0 | 0.00 | 0.00 | 0.00 | 30 | 1006.4 |
| 20260505233032 | 82 | 23 | 3.0 | 13.0 | 0.00 | 0.00 | 0.00 | 29 | 1006.4 |
| 20260505232929 | 82 | 51 | 2.0 | 13.0 | 0.00 | 0.00 | 0.00 | 29 | 1006.4 |
| 20260505232834 | 82 | 51 | 3.0 | 14.0 | 0.00 | 0.00 | 0.00 | 29 | 1006.4 |
| 20260505232747 | 82 | 67 | 4.0 | 15.0 | 0.00 | 0.00 | 0.00 | 29 | 1006.4 |
| 20260505232631 | 82 | 44 | 6.0 | 15.0 | 0.00 | 0.00 | 0.00 | 29 | 1006.4 |
| 20260505232551 | 82 | 72 | 8.0 | 15.0 | 0.00 | 0.00 | 0.00 | 29 | 1006.4 |
| 20260505232421 | 82 | 35 | 8.0 | 15.0 | 0.00 | 0.00 | 0.00 | 29 | 1006.5 |
| 20260505232340 | 82 | 20 | 8.0 | 15.0 | 0.00 | 0.00 | 0.00 | 29 | 1006.5 |
| 20260505232236 | 82 | 331 | 8.0 | 15.0 | 0.00 | 0.00 | 0.00 | 29 | 1006.4 |
| 20260505232137 | 82 | 5 | 9.0 | 15.0 | 0.00 | 0.00 | 0.00 | 29 | 1006.5 |
| 20260505232021 | 82 | 357 | 9.0 | 15.0 | 0.00 | 0.00 | 0.00 | 29 | 1006.4 |
| 20260505231925 | 82 | 351 | 9.0 | 15.0 | 0.00 | 0.00 | 0.00 | 29 | 1006.4 |
| 20260505231830 | 82 | 10 | 6.0 | 14.0 | 0.00 | 0.00 | 0.00 | 30 | 1006.4 |
| 20260505231728 | 82 | 50 | 6.0 | 14.0 | 0.00 | 0.00 | 0.00 | 29 | 1006.4 |
| 20260505231623 | 82 | 31 | 7.0 | 14.0 | 0.00 | 0.00 | 0.00 | 29 | 1006.3 |
| 20260505231529 | 82 | 61 | 7.0 | 13.0 | 0.00 | 0.00 | 0.00 | 28 | 1006.3 |
| 20260505231426 | 82 | 83 | 8.0 | 13.0 | 0.00 | 0.00 | 0.00 | 29 | 1006.4 |
| 20260505231335 | 82 | 360 | 7.0 | 12.0 | 0.00 | 0.00 | 0.00 | 28 | 1006.4 |
| 20260505231231 | 82 | 19 | 6.0 | 12.0 | 0.00 | 0.00 | 0.00 | 28 | 1006.4 |
| 20260505231138 | 82 | 323 | 6.0 | 12.0 | 0.00 | 0.00 | 0.00 | 28 | 1006.4 |
| 20260505231034 | 82 | 10 | 5.0 | 12.0 | 0.00 | 0.00 | 0.00 | 28 | 1006.5 |
| 20260505230939 | 82 | 10 | 4.0 | 14.0 | 0.00 | 0.00 | 0.00 | 29 | 1006.5 |
| 20260505230816 | 82 | 15 | 5.0 | 14.0 | 0.00 | 0.00 | 0.00 | 28 | 1006.5 |
| 20260505230717 | 82 | 333 | 6.0 | 14.0 | 0.00 | 0.00 | 0.00 | 28 | 1006.5 |
| 20260505230622 | 82 | 23 | 6.0 | 14.0 | 0.00 | 0.00 | 0.00 | 28 | 1006.5 |
| 20260505230518 | 82 | 25 | 8.0 | 14.0 | 0.00 | 0.00 | 0.00 | 29 | 1006.5 |
| 20260505230424 | 82 | 33 | 7.0 | 14.0 | 0.00 | 0.00 | 0.00 | 29 | 1006.5 |
| 20260505230316 | 82 | 36 | 6.0 | 14.0 | 0.00 | 0.00 | 0.00 | 28 | 1006.5 |
| 20260505230224 | 82 | 15 | 8.0 | 14.0 | 0.00 | 0.00 | 0.00 | 28 | 1006.5 |
| 20260505230126 | 82 | 345 | 8.0 | 14.0 | 0.00 | 0.00 | 0.00 | 28 | 1006.5 |
| 20260505230044 | 82 | 5 | 7.0 | 14.0 | 0.00 | 0.00 | 0.00 | 29 | 1006.5 |
| 20260505225927 | 82 | 51 | 7.0 | 14.0 | 0.00 | 0.00 | 0.00 | 29 | 1006.5 |
| 20260505225829 | 82 | 19 | 5.0 | 14.0 | 0.00 | 0.00 | 0.00 | 29 | 1006.5 |
| 20260505225734 | 82 | 27 | 5.0 | 14.0 | 0.00 | 0.00 | 0.00 | 28 | 1006.5 |
| 20260505225632 | 82 | 63 | 5.0 | 14.0 | 0.00 | 0.00 | 0.00 | 28 | 1006.5 |
| 20260505225536 | 82 | 36 | 5.0 | 14.0 | 0.00 | 0.00 | 0.00 | 28 | 1006.5 |
| 20260505225412 | 82 | 69 | 10.0 | 14.0 | 0.00 | 0.00 | 0.00 | 30 | 1006.6 |
| 20260505225328 | 82 | 61 | 11.0 | 14.0 | 0.00 | 0.00 | 0.00 | 29 | 1006.6 |
| 20260505225242 | 82 | 71 | 10.0 | 14.0 | 0.00 | 0.00 | 0.00 | 29 | 1006.6 |
| 20260505225113 | 83 | 37 | 7.0 | 15.0 | 0.00 | 0.00 | 0.00 | 29 | 1006.5 |
| 20260505225040 | 83 | 358 | 6.0 | 15.0 | 0.00 | 0.00 | 0.00 | 29 | 1006.5 |
| 20260505224916 | 83 | 26 | 4.0 | 15.0 | 0.00 | 0.00 | 0.00 | 29 | 1006.5 |
| 20260505224813 | 83 | 63 | 6.0 | 15.0 | 0.00 | 0.00 | 0.00 | 29 | 1006.5 |
| 20260505224722 | 83 | 63 | 8.0 | 15.0 | 0.00 | 0.00 | 0.00 | 29 | 1006.6 |
| 20260505224622 | 83 | 59 | 8.0 | 15.0 | 0.00 | 0.00 | 0.00 | 29 | 1006.6 |
| 20260505224517 | 83 | 355 | 7.0 | 15.0 | 0.00 | 0.00 | 0.00 | 30 | 1006.6 |
| 20260505224419 | 83 | 65 | 9.0 | 15.0 | 0.00 | 0.00 | 0.00 | 30 | 1006.6 |
| 20260505224325 | 83 | 59 | 9.0 | 15.0 | 0.00 | 0.00 | 0.00 | 29 | 1006.6 |
| 20260505224242 | 83 | 23 | 6.0 | 15.0 | 0.00 | 0.00 | 0.00 | 29 | 1006.6 |
| 20260505224126 | 83 | 55 | 5.0 | 15.0 | 0.00 | 0.00 | 0.00 | 29 | 1006.6 |
| 20260505224019 | 83 | 36 | 4.0 | 18.0 | 0.00 | 0.00 | 0.00 | 29 | 1006.6 |
| 20260505223926 | 83 | 102 | 4.0 | 18.0 | 0.00 | 0.00 | 0.00 | 29 | 1006.7 |
| 20260505223825 | 83 | 19 | 5.0 | 18.0 | 0.00 | 0.00 | 0.00 | 28 | 1006.6 |
| 20260505223722 | 83 | 38 | 5.0 | 18.0 | 0.00 | 0.00 | 0.00 | 29 | 1006.7 |
| 20260505223626 | 83 | 10 | 4.0 | 18.0 | 0.00 | 0.00 | 0.00 | 29 | 1006.7 |
| 20260505223520 | 83 | 356 | 5.0 | 18.0 | 0.00 | 0.00 | 0.00 | 28 | 1006.6 |
| 20260505223445 | 83 | 356 | 8.0 | 18.0 | 0.00 | 0.00 | 0.00 | 29 | 1006.6 |
| 20260505223408 | 83 | 19 | 9.0 | 18.0 | 0.00 | 0.00 | 0.00 | 29 | 1006.7 |
| 20260505223304 | 83 | 21 | 8.0 | 18.0 | 0.00 | 0.00 | 0.00 | 29 | 1006.6 |
| 20260505223121 | 83 | 25 | 5.0 | 12.0 | 0.00 | 0.00 | 0.00 | 29 | 1006.6 |
| 20260505223037 | 83 | 10 | 5.0 | 11.0 | 0.00 | 0.00 | 0.00 | 29 | 1006.6 |
| 20260505222941 | 83 | 42 | 6.0 | 11.0 | 0.00 | 0.00 | 0.00 | 29 | 1006.6 |
| 20260505222826 | 83 | 212 | 5.0 | 11.0 | 0.00 | 0.00 | 0.00 | 29 | 1006.6 |
| 20260505222723 | 83 | 60 | 4.0 | 11.0 | 0.00 | 0.00 | 0.00 | 30 | 1006.6 |
| 20260505222619 | 83 | 71 | 4.0 | 11.0 | 0.00 | 0.00 | 0.00 | 31 | 1006.6 |
| 20260505222526 | 82 | 95 | 4.0 | 11.0 | 0.00 | 0.00 | 0.00 | 31 | 1006.6 |
| 20260505222431 | 82 | 81 | 4.0 | 11.0 | 0.00 | 0.00 | 0.00 | 30 | 1006.6 |
| 20260505222312 | 82 | 61 | 4.0 | 11.0 | 0.00 | 0.00 | 0.00 | 30 | 1006.7 |
| 20260505222241 | 82 | 67 | 5.0 | 11.0 | 0.00 | 0.00 | 0.00 | 30 | 1006.7 |
| 20260505222116 | 82 | 44 | 4.0 | 12.0 | 0.00 | 0.00 | 0.00 | 30 | 1006.7 |
| 20260505222034 | 82 | 106 | 3.0 | 12.0 | 0.00 | 0.00 | 0.00 | 30 | 1006.7 |
| 20260505221920 | 82 | 46 | 4.0 | 12.0 | 0.00 | 0.00 | 0.00 | 30 | 1006.7 |
| 20260505221818 | 82 | 357 | 5.0 | 12.0 | 0.00 | 0.00 | 0.00 | 30 | 1006.7 |
| 20260505221723 | 82 | 51 | 6.0 | 12.0 | 0.00 | 0.00 | 0.00 | 29 | 1006.7 |
| 20260505221622 | 82 | 5 | 5.0 | 12.0 | 0.00 | 0.00 | 0.00 | 30 | 1006.7 |
| 20260505221519 | 82 | 30 | 6.0 | 12.0 | 0.00 | 0.00 | 0.00 | 29 | 1006.7 |
| 20260505221426 | 82 | 15 | 8.0 | 12.0 | 0.00 | 0.00 | 0.00 | 28 | 1006.7 |
| 20260505221323 | 82 | 345 | 8.0 | 12.0 | 0.00 | 0.00 | 0.00 | 28 | 1006.7 |
| 20260505221232 | 82 | 5 | 7.0 | 12.0 | 0.00 | 0.00 | 0.00 | 28 | 1006.7 |
| 20260505221126 | 82 | 341 | 6.0 | 12.0 | 0.00 | 0.00 | 0.00 | 28 | 1006.7 |
| 20260505221026 | 82 | 5 | 7.0 | 14.0 | 0.00 | 0.00 | 0.00 | 27 | 1006.7 |
| 20260505220913 | 82 | 15 | 6.0 | 14.0 | 0.00 | 0.00 | 0.00 | 28 | 1006.8 |
| 20260505220830 | 82 | 54 | 5.0 | 14.0 | 0.00 | 0.00 | 0.00 | 27 | 1006.8 |
| 20260505220734 | 82 | 73 | 4.0 | 14.0 | 0.00 | 0.00 | 0.00 | 29 | 1006.8 |
| 20260505220643 | 82 | 46 | 5.0 | 14.0 | 0.00 | 0.00 | 0.00 | 29 | 1006.8 |
| 20260505220517 | 82 | 69 | 4.0 | 14.0 | 0.00 | 0.00 | 0.00 | 28 | 1006.8 |
| 20260505220414 | 82 | 10 | 3.0 | 14.0 | 0.00 | 0.00 | 0.00 | 27 | 1006.8 |
| 20260505220315 | 82 | 355 | 6.0 | 14.0 | 0.00 | 0.00 | 0.00 | 27 | 1006.8 |
| 20260505220242 | 82 | 325 | 7.0 | 14.0 | 0.00 | 0.00 | 0.00 | 27 | 1006.9 |
| 20260505220125 | 82 | 44 | 6.0 | 14.0 | 0.00 | 0.00 | 0.00 | 27 | 1006.8 |
| 20260505220021 | 82 | 66 | 3.0 | 10.0 | 0.00 | 0.00 | 0.00 | 27 | 1006.8 |
| 20260505215926 | 82 | 92 | 4.0 | 10.0 | 0.00 | 0.00 | 0.00 | 28 | 1006.8 |
| 20260505215823 | 82 | 40 | 4.0 | 10.0 | 0.00 | 0.00 | 0.00 | 28 | 1006.8 |
| 20260505215749 | 82 | 96 | 4.0 | 10.0 | 0.00 | 0.00 | 0.00 | 28 | 1006.8 |
| 20260505215636 | 82 | 23 | 4.0 | 10.0 | 0.00 | 0.00 | 0.00 | 28 | 1006.8 |
| 20260505215535 | 82 | 327 | 4.0 | 10.0 | 0.00 | 0.00 | 0.00 | 28 | 1006.9 |
| 20260505215420 | 82 | 60 | 5.0 | 10.0 | 0.00 | 0.00 | 0.00 | 29 | 1006.9 |
| 20260505215336 | 82 | 92 | 5.0 | 10.0 | 0.00 | 0.00 | 0.00 | 28 | 1006.9 |
| 20260505215223 | 82 | 51 | 4.0 | 11.0 | 0.00 | 0.00 | 0.00 | 27 | 1006.9 |
| 20260505215119 | 82 | 46 | 3.0 | 11.0 | 0.00 | 0.00 | 0.00 | 30 | 1006.9 |
| 20260505215014 | 82 | 31 | 3.0 | 11.0 | 0.00 | 0.00 | 0.00 | 29 | 1006.9 |
| 20260505214921 | 82 | 32 | 4.0 | 11.0 | 0.00 | 0.00 | 0.00 | 29 | 1006.9 |
| 20260505214822 | 82 | 48 | 5.0 | 11.0 | 0.00 | 0.00 | 0.00 | 30 | 1006.9 |
| 20260505214730 | 82 | 77 | 4.0 | 11.0 | 0.00 | 0.00 | 0.00 | 30 | 1006.9 |
| 20260505214626 | 81 | 51 | 3.0 | 11.0 | 0.00 | 0.00 | 0.00 | 30 | 1006.8 |
| 20260505214531 | 81 | 70 | 4.0 | 11.0 | 0.00 | 0.00 | 0.00 | 29 | 1006.9 |
| 20260505214429 | 81 | 15 | 6.0 | 11.0 | 0.00 | 0.00 | 0.00 | 30 | 1006.9 |
| 20260505214327 | 81 | 53 | 5.0 | 11.0 | 0.00 | 0.00 | 0.00 | 29 | 1006.9 |
| 20260505214219 | 81 | 332 | 4.0 | 11.0 | 0.00 | 0.00 | 0.00 | 30 | 1006.9 |
| 20260505214112 | 81 | 30 | 6.0 | 11.0 | 0.00 | 0.00 | 0.00 | 30 | 1006.9 |
| 20260505214039 | 81 | 69 | 5.0 | 12.0 | 0.00 | 0.00 | 0.00 | 29 | 1006.9 |
| 20260505213916 | 81 | 52 | 7.0 | 13.0 | 0.00 | 0.00 | 0.00 | 31 | 1006.9 |
| 20260505213814 | 81 | 20 | 6.0 | 13.0 | 0.00 | 0.00 | 0.00 | 30 | 1007.0 |
| 20260505213742 | 81 | 36 | 4.0 | 13.0 | 0.00 | 0.00 | 0.00 | 30 | 1006.9 |
| 20260505213617 | 81 | 31 | 4.0 | 13.0 | 0.00 | 0.00 | 0.00 | 30 | 1006.9 |
| 20260505213528 | 81 | 35 | 4.0 | 13.0 | 0.00 | 0.00 | 0.00 | 30 | 1006.9 |
| 20260505213446 | 81 | 15 | 6.0 | 13.0 | 0.00 | 0.00 | 0.00 | 30 | 1006.9 |
| 20260505213330 | 81 | 355 | 7.0 | 13.0 | 0.00 | 0.00 | 0.00 | 31 | 1006.9 |
| 20260505213228 | 81 | 10 | 8.0 | 13.0 | 0.00 | 0.00 | 0.00 | 30 | 1006.9 |
| 20260505213135 | 81 | 19 | 8.0 | 13.0 | 0.00 | 0.00 | 0.00 | 30 | 1006.9 |
| 20260505213031 | 81 | 334 | 7.0 | 13.0 | 0.00 | 0.00 | 0.00 | 31 | 1006.9 |
| 20260505212938 | 81 | 23 | 6.0 | 13.0 | 0.00 | 0.00 | 0.00 | 31 | 1007.0 |
| 20260505212818 | 81 | 77 | 6.0 | 13.0 | 0.00 | 0.00 | 0.00 | 32 | 1007.0 |
| 20260505212716 | 81 | 29 | 5.0 | 13.0 | 0.00 | 0.00 | 0.00 | 33 | 1007.0 |
| 20260505212612 | 80 | 15 | 3.0 | 13.0 | 0.00 | 0.00 | 0.00 | 32 | 1006.9 |
| 20260505212517 | 80 | 349 | 6.0 | 12.0 | 0.00 | 0.00 | 0.00 | 32 | 1007.0 |
| 20260505212422 | 80 | 34 | 7.0 | 12.0 | 0.00 | 0.00 | 0.00 | 32 | 1007.0 |
| 20260505212339 | 80 | 10 | 6.0 | 12.0 | 0.00 | 0.00 | 0.00 | 32 | 1007.0 |
| 20260505212223 | 80 | 352 | 7.0 | 12.0 | 0.00 | 0.00 | 0.00 | 32 | 1007.0 |
| 20260505212131 | 80 | 5 | 8.0 | 14.0 | 0.00 | 0.00 | 0.00 | 33 | 1007.0 |
| 20260505212029 | 80 | 360 | 8.0 | 14.0 | 0.00 | 0.00 | 0.00 | 33 | 1007.0 |
| 20260505211926 | 80 | 5 | 7.0 | 14.0 | 0.00 | 0.00 | 0.00 | 32 | 1007.0 |
| 20260505211811 | 80 | 333 | 7.0 | 14.0 | 0.00 | 0.00 | 0.00 | 31 | 1007.0 |
| 20260505211728 | 80 | 339 | 7.0 | 14.0 | 0.00 | 0.00 | 0.00 | 31 | 1007.0 |
| 20260505211656 | 80 | 340 | 7.0 | 14.0 | 0.00 | 0.00 | 0.00 | 32 | 1007.0 |
| 20260505211600 | 80 | 341 | 8.0 | 14.0 | 0.00 | 0.00 | 0.00 | 32 | 1007.0 |
| 20260505211417 | 80 | 5 | 9.0 | 14.0 | 0.00 | 0.00 | 0.00 | 32 | 1007.0 |
| 20260505211318 | 80 | 19 | 9.0 | 14.0 | 0.00 | 0.00 | 0.00 | 32 | 1007.0 |
| 20260505211224 | 80 | 346 | 9.0 | 14.0 | 0.00 | 0.00 | 0.00 | 32 | 1007.0 |
| 20260505211132 | 80 | 5 | 7.0 | 13.0 | 0.00 | 0.00 | 0.00 | 32 | 1007.0 |
| 20260505211028 | 80 | 15 | 5.0 | 13.0 | 0.00 | 0.00 | 0.00 | 33 | 1007.1 |
| 20260505210926 | 80 | 351 | 5.0 | 13.0 | 0.00 | 0.00 | 0.00 | 32 | 1007.0 |
| 20260505210833 | 80 | 65 | 5.0 | 13.0 | 0.00 | 0.00 | 0.00 | 32 | 1007.0 |
| 20260505210713 | 80 | 27 | 5.0 | 13.0 | 0.00 | 0.00 | 0.00 | 32 | 1007.0 |
| 20260505210640 | 80 | 355 | 6.0 | 13.0 | 0.00 | 0.00 | 0.00 | 32 | 1007.0 |
| 20260505210512 | 80 | 337 | 7.0 | 13.0 | 0.00 | 0.00 | 0.00 | 33 | 1007.1 |
| 20260505210439 | 80 | 43 | 9.0 | 13.0 | 0.00 | 0.00 | 0.00 | 33 | 1007.1 |
| 20260505210344 | 80 | 31 | 9.0 | 13.0 | 0.00 | 0.00 | 0.00 | 32 | 1007.1 |
| 20260505210219 | 80 | 15 | 7.0 | 13.0 | 0.00 | 0.00 | 0.00 | 32 | 1007.1 |
| 20260505210116 | 80 | 10 | 6.0 | 13.0 | 0.00 | 0.00 | 0.00 | 32 | 1007.1 |
| 20260505210022 | 80 | 10 | 4.0 | 13.0 | 0.00 | 0.00 | 0.00 | 32 | 1007.1 |
| 20260505205921 | 80 | 72 | 2.0 | 13.0 | 0.00 | 0.00 | 0.00 | 32 | 1007.1 |
| 20260505205846 | 80 | 30 | 2.0 | 13.0 | 0.00 | 0.00 | 0.00 | 32 | 1007.1 |
| 20260505205723 | 80 | 58 | 4.0 | 13.0 | 0.00 | 0.00 | 0.00 | 32 | 1007.1 |
| 20260505205647 | 80 | 10 | 6.0 | 13.0 | 0.00 | 0.00 | 0.00 | 33 | 1007.1 |
| 20260505205533 | 80 | 15 | 6.0 | 13.0 | 0.00 | 0.00 | 0.00 | 32 | 1007.1 |
| 20260505205429 | 80 | 1 | 7.0 | 13.0 | 0.00 | 0.00 | 0.00 | 32 | 1007.1 |
| 20260505205334 | 80 | 10 | 5.0 | 13.0 | 0.00 | 0.00 | 0.00 | 33 | 1007.1 |
| 20260505205241 | 80 | 10 | 5.0 | 13.0 | 0.00 | 0.00 | 0.00 | 33 | 1007.1 |
| 20260505205120 | 80 | 66 | 5.0 | 12.0 | 0.00 | 0.00 | 0.00 | 33 | 1007.1 |
| 20260505205036 | 80 | 10 | 6.0 | 12.0 | 0.00 | 0.00 | 0.00 | 33 | 1007.1 |
| 20260505204921 | 80 | 360 | 8.0 | 12.0 | 0.00 | 0.00 | 0.00 | 33 | 1007.1 |
| 20260505204847 | 80 | 67 | 7.0 | 12.0 | 0.00 | 0.00 | 0.00 | 32 | 1007.1 |
| 20260505204726 | 80 | 346 | 5.0 | 12.0 | 0.00 | 0.00 | 0.00 | 32 | 1007.1 |
| 20260505204623 | 80 | 345 | 5.0 | 12.0 | 0.00 | 0.00 | 0.00 | 32 | 1007.1 |
| 20260505204530 | 80 | 22 | 7.0 | 12.0 | 0.00 | 0.00 | 0.00 | 32 | 1007.1 |
| 20260505204426 | 80 | 15 | 8.0 | 12.0 | 0.00 | 0.00 | 0.00 | 33 | 1007.2 |
| 20260505204334 | 80 | 15 | 8.0 | 12.0 | 0.00 | 0.00 | 0.00 | 32 | 1007.2 |
| 20260505204230 | 80 | 352 | 7.0 | 11.0 | 0.00 | 0.00 | 0.00 | 32 | 1007.2 |
| 20260505204138 | 80 | 353 | 5.0 | 10.0 | 0.00 | 0.00 | 0.00 | 32 | 1007.2 |
| 20260505204012 | 80 | 72 | 5.0 | 13.0 | 0.00 | 0.00 | 0.00 | 33 | 1007.2 |
| 20260505203938 | 80 | 53 | 5.0 | 13.0 | 0.00 | 0.00 | 0.00 | 32 | 1007.2 |
| 20260505203816 | 79 | 15 | 3.0 | 13.0 | 0.00 | 0.00 | 0.00 | 33 | 1007.2 |
| 20260505203745 | 79 | 32 | 4.0 | 13.0 | 0.00 | 0.00 | 0.00 | 33 | 1007.2 |
| 20260505203620 | 79 | 356 | 6.0 | 13.0 | 0.00 | 0.00 | 0.00 | 32 | 1007.2 |
| 20260505203517 | 79 | 15 | 7.0 | 13.0 | 0.00 | 0.00 | 0.00 | 33 | 1007.2 |
| 20260505203422 | 79 | 23 | 7.0 | 13.0 | 0.00 | 0.00 | 0.00 | 32 | 1007.2 |
| 20260505203320 | 79 | 20 | 7.0 | 13.0 | 0.00 | 0.00 | 0.00 | 32 | 1007.3 |
| 20260505203228 | 79 | 23 | 7.0 | 13.0 | 0.00 | 0.00 | 0.00 | 32 | 1007.3 |
| 20260505203124 | 79 | 5 | 4.0 | 12.0 | 0.00 | 0.00 | 0.00 | 33 | 1007.3 |
| 20260505203028 | 79 | 32 | 4.0 | 12.0 | 0.00 | 0.00 | 0.00 | 33 | 1007.3 |
| 20260505202923 | 79 | 40 | 5.0 | 12.0 | 0.00 | 0.00 | 0.00 | 33 | 1007.2 |
| 20260505202828 | 79 | 76 | 6.0 | 12.0 | 0.00 | 0.00 | 0.00 | 33 | 1007.2 |
| 20260505202725 | 79 | 15 | 6.0 | 17.0 | 0.00 | 0.00 | 0.00 | 33 | 1007.4 |
| 20260505202621 | 79 | 10 | 6.0 | 17.0 | 0.00 | 0.00 | 0.00 | 33 | 1007.4 |
| 20260505202547 | 79 | 353 | 4.0 | 17.0 | 0.00 | 0.00 | 0.00 | 33 | 1007.4 |
| 20260505202433 | 79 | 316 | 4.0 | 17.0 | 0.00 | 0.00 | 0.00 | 34 | 1007.3 |
| 20260505202329 | 79 | 36 | 7.0 | 17.0 | 0.00 | 0.00 | 0.00 | 34 | 1007.3 |
| 20260505202218 | 79 | 23 | 7.0 | 17.0 | 0.00 | 0.00 | 0.00 | 33 | 1007.4 |
| 20260505202114 | 79 | 26 | 7.0 | 17.0 | 0.00 | 0.00 | 0.00 | 32 | 1007.4 |
| 20260505202041 | 79 | 352 | 8.0 | 17.0 | 0.00 | 0.00 | 0.00 | 34 | 1007.4 |
| 20260505201916 | 79 | 349 | 5.0 | 17.0 | 0.00 | 0.00 | 0.00 | 33 | 1007.4 |
| 20260505201821 | 79 | 23 | 4.0 | 12.0 | 0.00 | 0.00 | 0.00 | 33 | 1007.4 |
| 20260505201727 | 79 | 44 | 6.0 | 13.0 | 0.00 | 0.00 | 0.00 | 33 | 1007.4 |
| 20260505201620 | 79 | 40 | 6.0 | 13.0 | 0.00 | 0.00 | 0.00 | 34 | 1007.4 |
| 20260505201516 | 79 | 25 | 6.0 | 13.0 | 0.00 | 0.00 | 0.00 | 33 | 1007.4 |
| 20260505201426 | 79 | 10 | 7.0 | 13.0 | 0.00 | 0.00 | 0.00 | 33 | 1007.4 |
| 20260505201323 | 79 | 32 | 6.0 | 13.0 | 0.00 | 0.00 | 0.00 | 34 | 1007.4 |
| 20260505201230 | 79 | 20 | 5.0 | 13.0 | 0.00 | 0.00 | 0.00 | 34 | 1007.4 |
| 20260505201159 | 79 | 341 | 4.0 | 13.0 | 0.00 | 0.00 | 0.00 | 35 | 1007.4 |
| 20260505201012 | 78 | 61 | 6.0 | 14.0 | 0.00 | 0.00 | 0.00 | 35 | 1007.5 |
| 20260505200930 | 78 | 58 | 5.0 | 14.0 | 0.00 | 0.00 | 0.00 | 35 | 1007.5 |
| 20260505200852 | 78 | 15 | 5.0 | 14.0 | 0.00 | 0.00 | 0.00 | 34 | 1007.5 |
| 20260505200714 | 78 | 40 | 7.0 | 14.0 | 0.00 | 0.00 | 0.00 | 34 | 1007.5 |
| 20260505200619 | 78 | 28 | 7.0 | 14.0 | 0.00 | 0.00 | 0.00 | 34 | 1007.5 |
| 20260505200537 | 78 | 40 | 6.0 | 14.0 | 0.00 | 0.00 | 0.00 | 34 | 1007.5 |
| 20260505200420 | 78 | 331 | 6.0 | 14.0 | 0.00 | 0.00 | 0.00 | 34 | 1007.5 |
| 20260505200318 | 78 | 342 | 7.0 | 14.0 | 0.00 | 0.00 | 0.00 | 35 | 1007.5 |
| 20260505200225 | 78 | 350 | 7.0 | 14.0 | 0.00 | 0.00 | 0.00 | 35 | 1007.5 |
| 20260505200120 | 78 | 359 | 5.0 | 13.0 | 0.00 | 0.00 | 0.00 | 35 | 1007.5 |
| 20260505200029 | 78 | 19 | 4.0 | 13.0 | 0.00 | 0.00 | 0.00 | 35 | 1007.5 |
| 20260505195955 | 78 | 31 | 5.0 | 13.0 | 0.00 | 0.00 | 0.00 | 36 | 1007.5 |
| 20260505195811 | 78 | 15 | 5.0 | 13.0 | 0.00 | 0.00 | 0.00 | 34 | 1007.5 |
| 20260505195728 | 78 | 5 | 5.0 | 13.0 | 0.00 | 0.00 | 0.00 | 33 | 1007.5 |
| 20260505195633 | 78 | 347 | 6.0 | 13.0 | 0.00 | 0.00 | 0.00 | 34 | 1007.5 |
| 20260505195536 | 78 | 1 | 8.0 | 13.0 | 0.00 | 0.00 | 0.00 | 34 | 1007.5 |
| 20260505195432 | 78 | 5 | 9.0 | 13.0 | 0.00 | 0.00 | 0.00 | 35 | 1007.5 |
| 20260505195359 | 78 | 351 | 7.0 | 12.0 | 0.00 | 0.00 | 0.00 | 36 | 1007.5 |
| 20260505195220 | 78 | 36 | 4.0 | 12.0 | 0.00 | 0.00 | 0.00 | 36 | 1007.5 |
| 20260505195143 | 78 | 70 | 4.0 | 11.0 | 0.00 | 0.00 | 0.00 | 35 | 1007.5 |
| 20260505195019 | 78 | 91 | 3.0 | 11.0 | 0.00 | 0.00 | 0.00 | 36 | 1007.5 |
| 20260505194923 | 78 | 25 | 3.0 | 11.0 | 0.00 | 0.00 | 0.00 | 35 | 1007.5 |
| 20260505194820 | 78 | 93 | 4.0 | 11.0 | 0.00 | 0.00 | 0.00 | 36 | 1007.5 |
| 20260505194729 | 78 | 54 | 5.0 | 11.0 | 0.00 | 0.00 | 0.00 | 36 | 1007.5 |
| 20260505194623 | 77 | 52 | 4.0 | 11.0 | 0.00 | 0.00 | 0.00 | 35 | 1007.6 |
| 20260505194524 | 77 | 360 | 4.0 | 11.0 | 0.00 | 0.00 | 0.00 | 35 | 1007.6 |
| 20260505194430 | 77 | 356 | 5.0 | 11.0 | 0.00 | 0.00 | 0.00 | 35 | 1007.6 |
| 20260505194328 | 77 | 354 | 5.0 | 12.0 | 0.00 | 0.00 | 0.00 | 36 | 1007.6 |
| 20260505194234 | 77 | 10 | 4.0 | 12.0 | 0.00 | 0.00 | 0.00 | 36 | 1007.6 |
| 20260505194131 | 77 | 343 | 3.0 | 12.0 | 0.00 | 0.00 | 0.00 | 37 | 1007.6 |
| 20260505194035 | 77 | 19 | 4.0 | 12.0 | 0.00 | 0.00 | 0.00 | 37 | 1007.6 |
| 20260505193913 | 77 | 57 | 6.0 | 12.0 | 0.00 | 0.00 | 0.00 | 37 | 1007.6 |
| 20260505193843 | 77 | 28 | 6.0 | 12.0 | 0.00 | 0.00 | 0.00 | 36 | 1007.6 |
| 20260505193720 | 77 | 25 | 7.0 | 12.0 | 0.00 | 0.00 | 0.00 | 37 | 1007.6 |
| 20260505193628 | 77 | 55 | 7.0 | 12.0 | 0.00 | 0.00 | 0.00 | 37 | 1007.6 |
| 20260505193544 | 77 | 33 | 6.0 | 12.0 | 0.00 | 0.00 | 0.00 | 38 | 1007.6 |
| 20260505193430 | 76 | 52 | 5.0 | 12.0 | 0.00 | 0.00 | 0.00 | 37 | 1007.6 |
| 20260505193328 | 76 | 21 | 4.0 | 12.0 | 0.00 | 0.00 | 0.00 | 37 | 1007.6 |
| 20260505193236 | 76 | 41 | 5.0 | 12.0 | 0.00 | 0.00 | 0.00 | 38 | 1007.7 |
| 20260505193113 | 76 | 42 | 7.0 | 12.0 | 0.00 | 0.00 | 0.00 | 37 | 1007.7 |
| 20260505193030 | 76 | 350 | 6.0 | 12.0 | 0.00 | 0.00 | 0.00 | 39 | 1007.7 |
| 20260505192936 | 76 | 23 | 4.0 | 11.0 | 0.00 | 0.00 | 0.00 | 38 | 1007.7 |
| 20260505192832 | 76 | 45 | 5.0 | 11.0 | 0.00 | 0.00 | 0.00 | 37 | 1007.7 |
| 20260505192719 | 76 | 23 | 6.0 | 11.0 | 0.00 | 0.00 | 0.00 | 37 | 1007.7 |
| 20260505192614 | 76 | 15 | 7.0 | 11.0 | 0.00 | 0.00 | 0.00 | 38 | 1007.8 |
| 20260505192512 | 76 | 20 | 6.0 | 11.0 | 0.00 | 0.00 | 0.00 | 38 | 1007.7 |
| 20260505192422 | 75 | 10 | 4.0 | 11.0 | 0.00 | 0.00 | 0.00 | 38 | 1007.7 |
| 20260505192319 | 75 | 10 | 5.0 | 11.0 | 0.00 | 0.00 | 0.00 | 38 | 1007.7 |
| 20260505192227 | 75 | 27 | 4.0 | 9.0 | 0.00 | 0.00 | 0.00 | 39 | 1007.7 |
| 20260505192123 | 75 | 110 | 2.0 | 9.0 | 0.00 | 0.00 | 0.00 | 38 | 1007.7 |
| 20260505192020 | 75 | 327 | 2.0 | 9.0 | 0.00 | 0.00 | 0.00 | 38 | 1007.7 |
| 20260505191925 | 75 | 329 | 3.0 | 9.0 | 0.00 | 0.00 | 0.00 | 39 | 1007.7 |
| 20260505191829 | 75 | 24 | 5.0 | 9.0 | 0.00 | 0.00 | 0.00 | 38 | 1007.7 |
| 20260505191742 | 75 | 21 | 5.0 | 10.0 | 0.00 | 0.00 | 0.00 | 38 | 1007.8 |
| 20260505191613 | 75 | 341 | 4.0 | 10.0 | 0.00 | 0.00 | 0.00 | 39 | 1007.8 |
| 20260505191540 | 75 | 353 | 4.0 | 10.0 | 0.00 | 0.00 | 0.00 | 39 | 1007.8 |
| 20260505191417 | 75 | 10 | 4.0 | 10.0 | 0.00 | 0.00 | 0.00 | 38 | 1007.8 |
| 20260505191314 | 75 | 319 | 6.0 | 10.0 | 0.00 | 0.00 | 0.00 | 38 | 1007.8 |
| 20260505191220 | 76 | 344 | 6.0 | 10.0 | 0.00 | 0.00 | 0.00 | 38 | 1007.8 |
| 20260505191143 | 76 | 332 | 6.0 | 10.0 | 0.00 | 0.00 | 0.00 | 38 | 1007.8 |
| 20260505191019 | 76 | 335 | 5.0 | 10.0 | 0.00 | 0.00 | 0.00 | 39 | 1007.8 |
| 20260505190920 | 76 | 359 | 4.0 | 10.0 | 0.00 | 0.00 | 0.00 | 40 | 1007.8 |
| 20260505190826 | 75 | 29 | 5.0 | 10.0 | 0.00 | 0.00 | 0.00 | 39 | 1007.8 |
| 20260505190753 | 75 | 10 | 4.0 | 10.0 | 0.00 | 0.00 | 0.00 | 39 | 1007.8 |
| 20260505190628 | 75 | 19 | 3.0 | 10.0 | 0.00 | 0.00 | 0.00 | 41 | 1007.8 |
| 20260505190532 | 75 | 29 | 3.0 | 10.0 | 0.00 | 0.00 | 0.00 | 39 | 1007.8 |
| 20260505190428 | 75 | 77 | 6.0 | 10.0 | 0.00 | 0.00 | 0.00 | 39 | 1007.8 |
| 20260505190354 | 75 | 57 | 6.0 | 10.0 | 0.00 | 0.00 | 0.00 | 40 | 1007.8 |
| 20260505190236 | 75 | 50 | 4.0 | 10.0 | 0.00 | 0.00 | 0.00 | 40 | 1007.8 |
| 20260505190119 | 75 | 29 | 4.0 | 10.0 | 0.00 | 0.00 | 0.00 | 40 | 1007.9 |
| 20260505190034 | 75 | 28 | 4.0 | 10.0 | 0.00 | 0.00 | 0.00 | 39 | 1007.8 |
| 20260505185919 | 75 | 65 | 5.0 | 10.0 | 0.00 | 0.00 | 0.00 | 40 | 1007.8 |
| 20260505185817 | 75 | 352 | 3.0 | 11.0 | 0.00 | 0.00 | 0.00 | 40 | 1007.8 |
| 20260505185724 | 74 | 27 | 3.0 | 11.0 | 0.00 | 0.00 | 0.00 | 39 | 1007.9 |
| 20260505185617 | 75 | 306 | 4.0 | 11.0 | 0.00 | 0.00 | 0.00 | 39 | 1007.8 |
| 20260505185543 | 75 | 306 | 5.0 | 11.0 | 0.00 | 0.00 | 0.00 | 39 | 1007.8 |
| 20260505185451 | 74 | 323 | 3.0 | 11.0 | 0.00 | 0.00 | 0.00 | 40 | 1007.8 |
| 20260505185327 | 74 | 5 | 3.0 | 11.0 | 0.00 | 0.00 | 0.00 | 40 | 1007.9 |
| 20260505185223 | 74 | 321 | 5.0 | 11.0 | 0.00 | 0.00 | 0.00 | 41 | 1007.9 |
| 20260505185131 | 74 | 350 | 6.0 | 11.0 | 0.00 | 0.00 | 0.00 | 40 | 1007.9 |
| 20260505185024 | 74 | 21 | 5.0 | 11.0 | 0.00 | 0.00 | 0.00 | 41 | 1007.9 |
| 20260505184930 | 74 | 341 | 5.0 | 11.0 | 0.00 | 0.00 | 0.00 | 39 | 1007.9 |
| 20260505184826 | 74 | 358 | 5.0 | 10.0 | 0.00 | 0.00 | 0.00 | 40 | 1007.9 |
| 20260505184726 | 74 | 27 | 5.0 | 10.0 | 0.00 | 0.00 | 0.00 | 40 | 1008.0 |
| 20260505184635 | 74 | 10 | 4.0 | 10.0 | 0.00 | 0.00 | 0.00 | 41 | 1008.0 |
| 20260505184558 | 74 | 29 | 4.0 | 10.0 | 0.00 | 0.00 | 0.00 | 40 | 1007.9 |
| 20260505184415 | 74 | 39 | 5.0 | 10.0 | 0.00 | 0.00 | 0.00 | 41 | 1008.0 |
| 20260505184312 | 74 | 36 | 5.0 | 10.0 | 0.00 | 0.00 | 0.00 | 41 | 1008.0 |
| 20260505184240 | 74 | 48 | 5.0 | 10.0 | 0.00 | 0.00 | 0.00 | 41 | 1008.0 |
| 20260505184119 | 74 | 348 | 4.0 | 10.0 | 0.00 | 0.00 | 0.00 | 41 | 1007.9 |
| 20260505184046 | 74 | 21 | 5.0 | 10.0 | 0.00 | 0.00 | 0.00 | 42 | 1007.9 |
| 20260505183922 | 74 | 37 | 4.0 | 10.0 | 0.00 | 0.00 | 0.00 | 42 | 1007.9 |
| 20260505183828 | 74 | 347 | 3.0 | 10.0 | 0.00 | 0.00 | 0.00 | 41 | 1007.9 |
| 20260505183731 | 74 | 323 | 4.0 | 10.0 | 0.00 | 0.00 | 0.00 | 41 | 1007.9 |
| 20260505183651 | 74 | 333 | 3.0 | 10.0 | 0.00 | 0.00 | 0.00 | 40 | 1007.9 |
| 20260505183532 | 74 | 344 | 4.0 | 10.0 | 0.00 | 0.00 | 0.00 | 41 | 1007.9 |
| 20260505183458 | 74 | 344 | 4.0 | 10.0 | 0.00 | 0.00 | 0.00 | 41 | 1007.9 |
| 20260505183333 | 74 | 354 | 5.0 | 10.0 | 0.00 | 0.00 | 0.00 | 41 | 1007.9 |
| 20260505183258 | 74 | 343 | 6.0 | 10.0 | 0.00 | 0.00 | 0.00 | 41 | 1007.9 |
| 20260505183118 | 74 | 341 | 5.0 | 9.0 | 0.00 | 0.00 | 0.00 | 41 | 1007.9 |
| 20260505183016 | 74 | 15 | 3.0 | 7.0 | 0.00 | 0.00 | 0.00 | 40 | 1007.8 |
| 20260505182922 | 74 | 44 | 4.0 | 8.0 | 0.00 | 0.00 | 0.00 | 40 | 1007.9 |
| 20260505182837 | 74 | 354 | 3.0 | 8.0 | 0.00 | 0.00 | 0.00 | 41 | 1007.9 |
| 20260505182724 | 74 | 19 | 3.0 | 8.0 | 0.00 | 0.00 | 0.00 | 40 | 1007.9 |
| 20260505182619 | 74 | 113 | 4.0 | 9.0 | 0.00 | 0.00 | 0.00 | 40 | 1007.9 |
| 20260505182528 | 74 | 28 | 4.0 | 9.0 | 0.00 | 0.00 | 0.00 | 41 | 1007.9 |
| 20260505182445 | 74 | 88 | 4.0 | 9.0 | 0.00 | 0.00 | 0.00 | 41 | 1007.8 |
| 20260505182331 | 74 | 50 | 2.0 | 9.0 | 0.00 | 0.00 | 0.00 | 40 | 1007.8 |
| 20260505182228 | 74 | 25 | 3.0 | 9.0 | 0.00 | 0.00 | 0.00 | 41 | 1007.9 |
| 20260505182137 | 74 | 20 | 4.0 | 9.0 | 0.00 | 0.00 | 0.00 | 40 | 1007.8 |
| 20260505182012 | 74 | 353 | 4.0 | 9.0 | 0.00 | 0.00 | 0.00 | 41 | 1007.8 |
| 20260505181938 | 74 | 39 | 5.0 | 9.0 | 0.00 | 0.00 | 0.00 | 40 | 1007.8 |
| 20260505181817 | 74 | 69 | 5.0 | 9.0 | 0.00 | 0.00 | 0.00 | 41 | 1007.9 |
| 20260505181743 | 74 | 28 | 6.0 | 9.0 | 0.00 | 0.00 | 0.00 | 41 | 1007.8 |
| 20260505181616 | 74 | 10 | 5.0 | 9.0 | 0.00 | 0.00 | 0.00 | 41 | 1007.9 |
| 20260505181544 | 74 | 5 | 3.0 | 9.0 | 0.00 | 0.00 | 0.00 | 41 | 1007.8 |
| 20260505181420 | 74 | 1 | 1.0 | 9.0 | 0.00 | 0.00 | 0.00 | 41 | 1007.8 |
| 20260505181347 | 74 | 1 | 1.0 | 9.0 | 0.00 | 0.00 | 0.00 | 41 | 1007.8 |
| 20260505181253 | 74 | 1 | 2.0 | 9.0 | 0.00 | 0.00 | 0.00 | 41 | 1007.8 |
| 20260505181130 | 73 | 1 | 2.0 | 9.0 | 0.00 | 0.00 | 0.00 | 42 | 1007.8 |
| 20260505181013 | 73 | 354 | 2.0 | 9.0 | 0.00 | 0.00 | 0.00 | 42 | 1007.8 |
| 20260505180914 | 73 | 354 | 3.0 | 9.0 | 0.00 | 0.00 | 0.00 | 42 | 1007.8 |
| 20260505180820 | 73 | 40 | 4.0 | 9.0 | 0.00 | 0.00 | 0.00 | 42 | 1007.9 |
| 20260505180714 | 73 | 57 | 3.0 | 9.0 | 0.00 | 0.00 | 0.00 | 42 | 1007.8 |
| 20260505180642 | 73 | 46 | 2.0 | 9.0 | 0.00 | 0.00 | 0.00 | 42 | 1007.8 |
| 20260505180518 | 73 | 47 | 4.0 | 9.0 | 0.00 | 0.00 | 0.00 | 42 | 1007.8 |
| 20260505180416 | 73 | 50 | 3.0 | 9.0 | 0.00 | 0.00 | 0.00 | 43 | 1007.8 |
| 20260505180325 | 73 | 25 | 2.0 | 8.0 | 0.00 | 0.00 | 0.00 | 43 | 1007.8 |
| 20260505180241 | 73 | 21 | 1.0 | 8.0 | 0.00 | 0.00 | 0.00 | 42 | 1007.8 |
| 20260505180129 | 73 | 21 | 2.0 | 8.0 | 0.00 | 0.00 | 0.00 | 43 | 1007.8 |
| 20260505180024 | 73 | 21 | 4.0 | 8.0 | 0.00 | 0.00 | 0.00 | 43 | 1007.8 |
| 20260505175930 | 73 | 21 | 3.0 | 8.0 | 0.00 | 0.00 | 0.00 | 43 | 1007.8 |
| 20260505175824 | 73 | 26 | 3.0 | 7.0 | 0.00 | 0.00 | 0.00 | 43 | 1007.8 |
| 20260505175730 | 72 | 24 | 4.0 | 6.0 | 0.00 | 0.00 | 0.00 | 44 | 1007.8 |
| 20260505175629 | 72 | 29 | 3.0 | 7.0 | 0.00 | 0.00 | 0.00 | 43 | 1007.8 |
| 20260505175536 | 72 | 77 | 2.0 | 6.0 | 0.00 | 0.00 | 0.00 | 43 | 1007.8 |
| 20260505175431 | 72 | 77 | 3.0 | 6.0 | 0.00 | 0.00 | 0.00 | 44 | 1007.8 |
| 20260505175338 | 72 | 5 | 3.0 | 8.0 | 0.00 | 0.00 | 0.00 | 44 | 1007.8 |
| 20260505175217 | 72 | 353 | 1.0 | 8.0 | 0.00 | 0.00 | 0.00 | 44 | 1007.8 |
| 20260505175140 | 71 | 352 | 1.0 | 8.0 | 0.00 | 0.00 | 0.00 | 44 | 1007.8 |
| 20260505175036 | 71 | 352 | 1.0 | 8.0 | 0.00 | 0.00 | 0.00 | 45 | 1007.8 |
| 20260505174922 | 71 | 352 | 2.0 | 8.0 | 0.00 | 0.00 | 0.00 | 45 | 1007.8 |
| 20260505174824 | 71 | 352 | 3.0 | 8.0 | 0.00 | 0.00 | 0.00 | 44 | 1007.8 |
| 20260505174730 | 71 | 352 | 4.0 | 8.0 | 0.00 | 0.00 | 0.00 | 44 | 1007.8 |
| 20260505174625 | 71 | 313 | 5.0 | 8.0 | 0.00 | 0.00 | 0.00 | 44 | 1007.8 |
| 20260505174522 | 71 | 314 | 4.0 | 6.0 | 0.00 | 0.00 | 0.00 | 44 | 1007.8 |
| 20260505174428 | 71 | 336 | 3.0 | 6.0 | 0.00 | 0.00 | 0.00 | 45 | 1007.8 |
| 20260505174354 | 71 | 337 | 2.0 | 6.0 | 0.00 | 0.00 | 0.00 | 45 | 1007.8 |
| 20260505174213 | 71 | 327 | 0.0 | 6.0 | 0.00 | 0.00 | 0.00 | 45 | 1007.8 |
| 20260505174113 | 71 | 327 | 0.0 | 6.0 | 0.00 | 0.00 | 0.00 | 45 | 1007.8 |
| 20260505174019 | 71 | 327 | 0.0 | 6.0 | 0.00 | 0.00 | 0.00 | 45 | 1007.8 |
| 20260505173916 | 70 | 327 | 1.0 | 6.0 | 0.00 | 0.00 | 0.00 | 45 | 1007.8 |
| 20260505173843 | 70 | 327 | 3.0 | 6.0 | 0.00 | 0.00 | 0.00 | 45 | 1007.8 |
| 20260505173721 | 70 | 327 | 3.0 | 7.0 | 0.00 | 0.00 | 0.00 | 45 | 1007.8 |
| 20260505173625 | 70 | 298 | 2.0 | 6.0 | 0.00 | 0.00 | 0.00 | 45 | 1007.7 |
| 20260505173521 | 70 | 265 | 0.0 | 4.0 | 0.00 | 0.00 | 0.00 | 46 | 1007.7 |
| 20260505173423 | 70 | 265 | 0.0 | 4.0 | 0.00 | 0.00 | 0.00 | 45 | 1007.8 |
| 20260505173330 | 70 | 265 | 1.0 | 4.0 | 0.00 | 0.00 | 0.00 | 46 | 1007.8 |
| 20260505173228 | 70 | 265 | 1.0 | 4.0 | 0.00 | 0.00 | 0.00 | 46 | 1007.8 |
| 20260505173134 | 70 | 265 | 1.0 | 4.0 | 0.00 | 0.00 | 0.00 | 47 | 1007.8 |
| 20260505173031 | 70 | 265 | 2.0 | 4.0 | 0.00 | 0.00 | 0.00 | 48 | 1007.8 |
| 20260505172936 | 69 | 265 | 3.0 | 4.0 | 0.00 | 0.00 | 0.00 | 47 | 1007.8 |
| 20260505172818 | 69 | 268 | 2.0 | 4.0 | 0.00 | 0.00 | 0.00 | 47 | 1007.8 |
| 20260505172723 | 69 | 268 | 3.0 | 4.0 | 0.00 | 0.00 | 0.00 | 47 | 1007.8 |
| 20260505172616 | 69 | 268 | 1.0 | 4.0 | 0.00 | 0.00 | 0.00 | 47 | 1007.8 |
| 20260505172522 | 69 | 267 | 1.0 | 4.0 | 0.00 | 0.00 | 0.00 | 47 | 1007.8 |
| 20260505172417 | 69 | 267 | 2.0 | 4.0 | 0.00 | 0.00 | 0.00 | 47 | 1007.8 |
| 20260505172323 | 69 | 267 | 3.0 | 4.0 | 0.00 | 0.00 | 0.00 | 47 | 1007.8 |
| 20260505172241 | 69 | 267 | 2.0 | 4.0 | 0.00 | 0.00 | 0.00 | 48 | 1007.8 |
| 20260505172125 | 69 | 267 | 1.0 | 4.0 | 0.00 | 0.00 | 0.00 | 48 | 1007.9 |
| 20260505172026 | 68 | 266 | 1.0 | 4.0 | 0.00 | 0.00 | 0.00 | 48 | 1007.8 |
| 20260505171931 | 68 | 266 | 1.0 | 4.0 | 0.00 | 0.00 | 0.00 | 48 | 1007.8 |
| 20260505171827 | 68 | 266 | 0.0 | 4.0 | 0.00 | 0.00 | 0.00 | 48 | 1007.9 |
| 20260505171734 | 68 | 266 | 1.0 | 4.0 | 0.00 | 0.00 | 0.00 | 48 | 1007.9 |
| 20260505171626 | 68 | 266 | 2.0 | 4.0 | 0.00 | 0.00 | 0.00 | 48 | 1007.9 |
| 20260505171553 | 68 | 266 | 2.0 | 4.0 | 0.00 | 0.00 | 0.00 | 48 | 1007.9 |
| 20260505171427 | 68 | 270 | 2.0 | 4.0 | 0.00 | 0.00 | 0.00 | 50 | 1007.9 |
| 20260505171316 | 68 | 270 | 1.0 | 4.0 | 0.00 | 0.00 | 0.00 | 49 | 1007.9 |
| 20260505171214 | 68 | 270 | 1.0 | 4.0 | 0.00 | 0.00 | 0.00 | 49 | 1007.9 |
| 20260505171117 | 68 | 270 | 2.0 | 4.0 | 0.00 | 0.00 | 0.00 | 48 | 1007.9 |
| 20260505171013 | 68 | 270 | 2.0 | 4.0 | 0.00 | 0.00 | 0.00 | 48 | 1007.9 |
| 20260505170919 | 68 | 270 | 2.0 | 4.0 | 0.00 | 0.00 | 0.00 | 48 | 1007.9 |
| 20260505170816 | 68 | 269 | 2.0 | 4.0 | 0.00 | 0.00 | 0.00 | 48 | 1007.9 |
| 20260505170714 | 67 | 269 | 2.0 | 3.0 | 0.00 | 0.00 | 0.00 | 49 | 1007.9 |
| 20260505170622 | 67 | 269 | 2.0 | 3.0 | 0.00 | 0.00 | 0.00 | 49 | 1007.9 |
| 20260505170519 | 67 | 269 | 2.0 | 7.0 | 0.00 | 0.00 | 0.00 | 49 | 1007.9 |
| 20260505170426 | 67 | 269 | 2.0 | 7.0 | 0.00 | 0.00 | 0.00 | 49 | 1007.9 |
| 20260505170322 | 67 | 269 | 1.0 | 7.0 | 0.00 | 0.00 | 0.00 | 49 | 1007.9 |
| 20260505170221 | 67 | 269 | 1.0 | 7.0 | 0.00 | 0.00 | 0.00 | 49 | 1007.8 |
| 20260505170126 | 67 | 269 | 1.0 | 7.0 | 0.00 | 0.00 | 0.00 | 48 | 1007.9 |
| 20260505170023 | 67 | 269 | 1.0 | 7.0 | 0.00 | 0.00 | 0.00 | 48 | 1007.9 |
| 20260505165931 | 67 | 269 | 1.0 | 7.0 | 0.00 | 0.00 | 0.00 | 49 | 1007.9 |
| 20260505165834 | 67 | 269 | 2.0 | 7.0 | 0.00 | 0.00 | 0.00 | 49 | 1007.9 |
| 20260505165740 | 67 | 269 | 4.0 | 7.0 | 0.00 | 0.00 | 0.00 | 49 | 1007.9 |
| 20260505165616 | 67 | 242 | 2.0 | 6.0 | 0.00 | 0.00 | 0.00 | 49 | 1007.8 |
| 20260505165514 | 67 | 240 | 1.0 | 6.0 | 0.00 | 0.00 | 0.00 | 49 | 1007.9 |
| 20260505165412 | 67 | 240 | 2.0 | 6.0 | 0.00 | 0.00 | 0.00 | 50 | 1007.8 |
| 20260505165319 | 67 | 240 | 2.0 | 6.0 | 0.00 | 0.00 | 0.00 | 50 | 1007.8 |
| 20260505165246 | 67 | 240 | 1.0 | 6.0 | 0.00 | 0.00 | 0.00 | 51 | 1007.9 |
| 20260505165128 | 67 | 239 | 2.0 | 6.0 | 0.00 | 0.00 | 0.00 | 51 | 1007.9 |
| 20260505165031 | 67 | 239 | 3.0 | 6.0 | 0.00 | 0.00 | 0.00 | 51 | 1007.9 |
| 20260505164927 | 66 | 239 | 3.0 | 6.0 | 0.00 | 0.00 | 0.00 | 51 | 1007.9 |
| 20260505164833 | 66 | 239 | 5.0 | 6.0 | 0.00 | 0.00 | 0.00 | 51 | 1007.9 |
| 20260505164730 | 66 | 241 | 4.0 | 7.0 | 0.00 | 0.00 | 0.00 | 50 | 1007.9 |
| 20260505164638 | 66 | 246 | 3.0 | 7.0 | 0.00 | 0.00 | 0.00 | 50 | 1007.9 |
| 20260505164518 | 66 | 268 | 3.0 | 6.0 | 0.00 | 0.00 | 0.00 | 50 | 1007.9 |
| 20260505164436 | 66 | 268 | 3.0 | 6.0 | 0.00 | 0.00 | 0.00 | 50 | 1007.9 |
| 20260505164321 | 66 | 267 | 2.0 | 6.0 | 0.00 | 0.00 | 0.00 | 51 | 1007.9 |
| 20260505164218 | 66 | 267 | 0.0 | 6.0 | 0.00 | 0.00 | 0.00 | 51 | 1007.9 |
| 20260505164122 | 66 | 231 | 0.0 | 6.0 | 0.00 | 0.00 | 0.00 | 52 | 1007.9 |
| 20260505164018 | 66 | 231 | 0.0 | 6.0 | 0.00 | 0.00 | 0.00 | 52 | 1007.9 |
| 20260505163916 | 66 | 231 | 0.0 | 6.0 | 0.00 | 0.00 | 0.00 | 52 | 1007.9 |
| 20260505163827 | 65 | 231 | 1.0 | 6.0 | 0.00 | 0.00 | 0.00 | 52 | 1007.9 |
| 20260505163731 | 65 | 231 | 2.0 | 6.0 | 0.00 | 0.00 | 0.00 | 52 | 1007.9 |
| 20260505163630 | 65 | 231 | 3.0 | 6.0 | 0.00 | 0.00 | 0.00 | 52 | 1007.9 |
| 20260505163525 | 65 | 231 | 4.0 | 6.0 | 0.00 | 0.00 | 0.00 | 53 | 1007.9 |
| 20260505163430 | 65 | 231 | 5.0 | 6.0 | 0.00 | 0.00 | 0.00 | 53 | 1007.9 |
| 20260505163326 | 65 | 231 | 4.0 | 6.0 | 0.00 | 0.00 | 0.00 | 54 | 1007.9 |
| 20260505163234 | 65 | 231 | 4.0 | 7.0 | 0.00 | 0.00 | 0.00 | 55 | 1007.9 |
| 20260505163113 | 65 | 232 | 4.0 | 7.0 | 0.00 | 0.00 | 0.00 | 56 | 1007.9 |
| 20260505163039 | 65 | 247 | 4.0 | 7.0 | 0.00 | 0.00 | 0.00 | 56 | 1007.9 |
| 20260505162914 | 64 | 247 | 4.0 | 7.0 | 0.00 | 0.00 | 0.00 | 57 | 1007.9 |
| 20260505162812 | 64 | 252 | 4.0 | 6.0 | 0.00 | 0.00 | 0.00 | 57 | 1007.9 |
| 20260505162739 | 64 | 190 | 4.0 | 6.0 | 0.00 | 0.00 | 0.00 | 57 | 1007.9 |
| 20260505162614 | 64 | 217 | 2.0 | 5.0 | 0.00 | 0.00 | 0.00 | 57 | 1007.9 |
| 20260505162516 | 64 | 219 | 2.0 | 5.0 | 0.00 | 0.00 | 0.00 | 58 | 1007.9 |
| 20260505162422 | 63 | 219 | 3.0 | 5.0 | 0.00 | 0.00 | 0.00 | 58 | 1007.9 |
| 20260505162340 | 63 | 219 | 3.0 | 5.0 | 0.00 | 0.00 | 0.00 | 58 | 1007.9 |
| 20260505162226 | 63 | 219 | 2.0 | 4.0 | 0.00 | 0.00 | 0.00 | 58 | 1007.9 |
| 20260505162121 | 63 | 219 | 0.0 | 5.0 | 0.00 | 0.00 | 0.00 | 58 | 1007.9 |
| 20260505162027 | 63 | 218 | 1.0 | 5.0 | 0.00 | 0.00 | 0.00 | 58 | 1007.9 |
| 20260505161925 | 63 | 218 | 2.0 | 5.0 | 0.00 | 0.00 | 0.00 | 58 | 1007.9 |
| 20260505161836 | 63 | 218 | 2.0 | 5.0 | 0.00 | 0.00 | 0.00 | 58 | 1007.9 |
| 20260505161713 | 62 | 218 | 2.0 | 5.0 | 0.00 | 0.00 | 0.00 | 59 | 1007.9 |
| 20260505161633 | 62 | 218 | 2.0 | 5.0 | 0.00 | 0.00 | 0.00 | 59 | 1007.9 |
| 20260505161536 | 62 | 218 | 3.0 | 5.0 | 0.00 | 0.00 | 0.00 | 59 | 1007.9 |
| 20260505161430 | 62 | 218 | 3.0 | 5.0 | 0.00 | 0.00 | 0.00 | 60 | 1008.0 |
| 20260505161336 | 62 | 218 | 4.0 | 5.0 | 0.00 | 0.00 | 0.00 | 60 | 1008.0 |
| 20260505161213 | 62 | 217 | 3.0 | 5.0 | 0.00 | 0.00 | 0.00 | 61 | 1008.0 |
| 20260505161123 | 62 | 215 | 3.0 | 5.0 | 0.00 | 0.00 | 0.00 | 61 | 1008.0 |
| 20260505161018 | 61 | 215 | 3.0 | 4.0 | 0.00 | 0.00 | 0.00 | 61 | 1008.0 |
| 20260505160914 | 61 | 215 | 3.0 | 4.0 | 0.00 | 0.00 | 0.00 | 62 | 1008.0 |
| 20260505160820 | 61 | 212 | 2.0 | 4.0 | 0.00 | 0.00 | 0.00 | 62 | 1008.0 |
| 20260505160737 | 61 | 212 | 1.0 | 4.0 | 0.00 | 0.00 | 0.00 | 62 | 1008.0 |
| 20260505160619 | 60 | 212 | 1.0 | 4.0 | 0.00 | 0.00 | 0.00 | 62 | 1008.1 |
| 20260505160516 | 60 | 212 | 2.0 | 4.0 | 0.00 | 0.00 | 0.00 | 61 | 1008.1 |
| 20260505160427 | 60 | 212 | 2.0 | 4.0 | 0.00 | 0.00 | 0.00 | 62 | 1008.1 |
| 20260505160322 | 60 | 212 | 2.0 | 4.0 | 0.00 | 0.00 | 0.00 | 63 | 1008.1 |
| 20260505160231 | 60 | 210 | 2.0 | 4.0 | 0.00 | 0.00 | 0.00 | 63 | 1008.1 |
| 20260505160126 | 60 | 210 | 2.0 | 4.0 | 0.00 | 0.00 | 0.00 | 63 | 1008.1 |
| 20260505153325 | 55 | 207 | 3.0 | 6.0 | 0.00 | 0.00 | 0.00 | 69 | 1008.1 |
| 20260505153231 | 55 | 203 | 2.0 | 4.0 | 0.00 | 0.00 | 0.00 | 69 | 1008.1 |
| 20260505153131 | 55 | 203 | 3.0 | 4.0 | 0.00 | 0.00 | 0.00 | 70 | 1008.1 |
| 20260505153036 | 54 | 203 | 3.0 | 4.0 | 0.00 | 0.00 | 0.00 | 70 | 1008.1 |
| 20260505152915 | 54 | 203 | 3.0 | 4.0 | 0.00 | 0.00 | 0.00 | 70 | 1008.1 |
| 20260505152839 | 54 | 202 | 2.0 | 4.0 | 0.00 | 0.00 | 0.00 | 70 | 1008.1 |
| 20260505152726 | 54 | 202 | 2.0 | 4.0 | 0.00 | 0.00 | 0.00 | 70 | 1008.1 |
| 20260505152621 | 54 | 202 | 3.0 | 4.0 | 0.00 | 0.00 | 0.00 | 71 | 1008.0 |
| 20260505152547 | 54 | 202 | 2.0 | 4.0 | 0.00 | 0.00 | 0.00 | 71 | 1008.1 |
| 20260505152451 | 54 | 202 | 3.0 | 4.0 | 0.00 | 0.00 | 0.00 | 72 | 1008.1 |
| 20260505152326 | 53 | 202 | 3.0 | 4.0 | 0.00 | 0.00 | 0.00 | 72 | 1008.1 |
| 20260505152221 | 53 | 202 | 3.0 | 4.0 | 0.00 | 0.00 | 0.00 | 73 | 1008.0 |
| 20260505152133 | 53 | 202 | 2.0 | 4.0 | 0.00 | 0.00 | 0.00 | 73 | 1008.0 |
| 20260505152035 | 53 | 202 | 3.0 | 4.0 | 0.00 | 0.00 | 0.00 | 74 | 1008.0 |
| 20260505151933 | 53 | 202 | 3.0 | 4.0 | 0.00 | 0.00 | 0.00 | 74 | 1008.1 |
| 20260505151859 | 53 | 202 | 3.0 | 4.0 | 0.00 | 0.00 | 0.00 | 74 | 1008.1 |
| 20260505151736 | 52 | 202 | 2.0 | 5.0 | 0.00 | 0.00 | 0.00 | 75 | 1008.0 |
| 20260505151639 | 52 | 202 | 2.0 | 5.0 | 0.00 | 0.00 | 0.00 | 75 | 1008.0 |
| 20260505151514 | 52 | 202 | 3.0 | 5.0 | 0.00 | 0.00 | 0.00 | 75 | 1008.0 |
| 20260505151420 | 52 | 201 | 3.0 | 6.0 | 0.00 | 0.00 | 0.00 | 75 | 1008.0 |
| 20260505151321 | 51 | 201 | 2.0 | 6.0 | 0.00 | 0.00 | 0.00 | 76 | 1008.0 |
| 20260505151229 | 51 | 201 | 2.0 | 6.0 | 0.00 | 0.00 | 0.00 | 76 | 1008.0 |
| 20260505151128 | 51 | 201 | 2.0 | 6.0 | 0.00 | 0.00 | 0.00 | 76 | 1008.0 |
| 20260505151024 | 51 | 201 | 3.0 | 6.0 | 0.00 | 0.00 | 0.00 | 77 | 1007.9 |
| 20260505150928 | 51 | 201 | 3.0 | 6.0 | 0.00 | 0.00 | 0.00 | 77 | 1007.9 |
| 20260505150834 | 50 | 200 | 3.0 | 6.0 | 0.00 | 0.00 | 0.00 | 78 | 1007.9 |
| 20260505150732 | 50 | 200 | 3.0 | 6.0 | 0.00 | 0.00 | 0.00 | 78 | 1007.9 |
| 20260505150636 | 50 | 200 | 4.0 | 6.0 | 0.00 | 0.00 | 0.00 | 78 | 1007.9 |
| 20260505150517 | 50 | 196 | 4.0 | 6.0 | 0.00 | 0.00 | 0.00 | 79 | 1007.9 |
| 20260505150422 | 50 | 184 | 3.0 | 6.0 | 0.00 | 0.00 | 0.00 | 79 | 1007.9 |
| 20260505150319 | 49 | 156 | 2.0 | 4.0 | 0.00 | 0.00 | 0.00 | 79 | 1007.9 |
| 20260505150219 | 49 | 156 | 3.0 | 4.0 | 0.00 | 0.00 | 0.00 | 79 | 1007.9 |
| 20260505150123 | 49 | 156 | 2.0 | 4.0 | 0.00 | 0.00 | 0.00 | 80 | 1007.9 |
| 20260505140619 | 46 | 148 | 0.0 | 0.0 | 0.00 | 0.00 | 0.00 | 78 | 1007.4 |
| 20260505140517 | 46 | 148 | 0.0 | 0.0 | 0.00 | 0.00 | 0.00 | 78 | 1007.4 |
| 20260505140443 | 46 | 148 | 0.0 | 0.0 | 0.00 | 0.00 | 0.00 | 78 | 1007.4 |
| 20260505140318 | 46 | 148 | 0.0 | 0.0 | 0.00 | 0.00 | 0.00 | 78 | 1007.4 |
| 20260505140230 | 46 | 148 | 0.0 | 0.0 | 0.00 | 0.00 | 0.00 | 78 | 1007.4 |
| 20260505140126 | 46 | 148 | 0.0 | 0.0 | 0.00 | 0.00 | 0.00 | 78 | 1007.4 |
| 20260505130228 | 47 | 148 | 0.0 | 0.0 | 0.00 | 0.00 | 0.00 | 74 | 1006.8 |
| 20260505130125 | 47 | 148 | 0.0 | 0.0 | 0.00 | 0.00 | 0.00 | 74 | 1006.7 |
| 20260505125026 | 47 | 148 | 0.0 | 0.0 | 0.00 | 0.00 | 0.00 | 74 | 1006.6 |
| 20260505124924 | 48 | 148 | 0.0 | 0.0 | 0.00 | 0.00 | 0.00 | 74 | 1006.6 |
| 20260505124819 | 48 | 148 | 0.0 | 0.0 | 0.00 | 0.00 | 0.00 | 74 | 1006.6 |
| 20260505124725 | 48 | 148 | 0.0 | 0.0 | 0.00 | 0.00 | 0.00 | 75 | 1006.6 |
| 20260505124621 | 48 | 148 | 0.0 | 0.0 | 0.00 | 0.00 | 0.00 | 75 | 1006.6 |
| 20260505124528 | 48 | 148 | 0.0 | 0.0 | 0.00 | 0.00 | 0.00 | 75 | 1006.6 |
| 20260505124425 | 48 | 148 | 0.0 | 0.0 | 0.00 | 0.00 | 0.00 | 75 | 1006.6 |
| 20260505124351 | 48 | 148 | 0.0 | 0.0 | 0.00 | 0.00 | 0.00 | 76 | 1006.6 |
| 20260505124228 | 48 | 148 | 0.0 | 0.0 | 0.00 | 0.00 | 0.00 | 76 | 1006.5 |
| 20260505124136 | 48 | 148 | 0.0 | 0.0 | 0.00 | 0.00 | 0.00 | 76 | 1006.5 |
| 20260505124030 | 48 | 148 | 0.0 | 0.0 | 0.00 | 0.00 | 0.00 | 76 | 1006.6 |
| 20260505123911 | 48 | 148 | 0.0 | 0.0 | 0.00 | 0.00 | 0.00 | 77 | 1006.6 |
| 20260505123817 | 48 | 148 | 0.0 | 0.0 | 0.00 | 0.00 | 0.00 | 77 | 1006.5 |
| 20260505123716 | 48 | 148 | 0.0 | 0.0 | 0.00 | 0.00 | 0.00 | 77 | 1006.6 |
| 20260505123621 | 48 | 148 | 0.0 | 0.0 | 0.00 | 0.00 | 0.00 | 77 | 1006.6 |
| 20260505123519 | 48 | 148 | 0.0 | 0.0 | 0.00 | 0.00 | 0.00 | 78 | 1006.5 |
| 20260505123446 | 48 | 148 | 0.0 | 0.0 | 0.00 | 0.00 | 0.00 | 78 | 1006.5 |
| 20260505123323 | 48 | 148 | 0.0 | 0.0 | 0.00 | 0.00 | 0.00 | 78 | 1006.5 |
| 20260505123214 | 48 | 148 | 0.0 | 0.0 | 0.00 | 0.00 | 0.00 | 78 | 1006.5 |
| 20260505123130 | 48 | 148 | 0.0 | 0.0 | 0.00 | 0.00 | 0.00 | 78 | 1006.5 |
| 20260505123035 | 48 | 148 | 0.0 | 0.0 | 0.00 | 0.00 | 0.00 | 78 | 1006.5 |
| 20260505122911 | 48 | 148 | 0.0 | 0.0 | 0.00 | 0.00 | 0.00 | 77 | 1006.6 |
| 20260505122829 | 48 | 148 | 0.0 | 0.0 | 0.00 | 0.00 | 0.00 | 77 | 1006.6 |
| 20260505122718 | 48 | 148 | 0.0 | 0.0 | 0.00 | 0.00 | 0.00 | 77 | 1006.6 |
| 20260505122617 | 48 | 148 | 0.0 | 0.0 | 0.00 | 0.00 | 0.00 | 77 | 1006.5 |
| 20260505122514 | 48 | 148 | 0.0 | 0.0 | 0.00 | 0.00 | 0.00 | 76 | 1006.6 |
| 20260505122421 | 48 | 148 | 0.0 | 0.0 | 0.00 | 0.00 | 0.00 | 76 | 1006.5 |
| 20260505122319 | 48 | 148 | 0.0 | 0.0 | 0.00 | 0.00 | 0.00 | 76 | 1006.6 |
| 20260505122227 | 48 | 148 | 0.0 | 0.0 | 0.00 | 0.00 | 0.00 | 76 | 1006.6 |
| 20260505122123 | 48 | 148 | 0.0 | 0.0 | 0.00 | 0.00 | 0.00 | 76 | 1006.6 |
| 20260505122020 | 48 | 148 | 0.0 | 0.0 | 0.00 | 0.00 | 0.00 | 76 | 1006.5 |
| 20260505121951 | 48 | 148 | 0.0 | 0.0 | 0.00 | 0.00 | 0.00 | 75 | 1006.5 |
| 20260505121836 | 48 | 148 | 0.0 | 0.0 | 0.00 | 0.00 | 0.00 | 75 | 1006.6 |
| 20260505121715 | 48 | 148 | 0.0 | 0.0 | 0.00 | 0.00 | 0.00 | 75 | 1006.6 |
| 20260505121616 | 48 | 148 | 0.0 | 0.0 | 0.00 | 0.00 | 0.00 | 75 | 1006.6 |
| 20260505121513 | 48 | 148 | 0.0 | 0.0 | 0.00 | 0.00 | 0.00 | 75 | 1006.5 |
| 20260505121420 | 48 | 148 | 0.0 | 0.0 | 0.00 | 0.00 | 0.00 | 75 | 1006.5 |
| 20260505121316 | 48 | 148 | 0.0 | 0.0 | 0.00 | 0.00 | 0.00 | 75 | 1006.5 |
| 20260505121228 | 48 | 148 | 0.0 | 0.0 | 0.00 | 0.00 | 0.00 | 75 | 1006.5 |
| 20260505121123 | 48 | 148 | 0.0 | 0.0 | 0.00 | 0.00 | 0.00 | 75 | 1006.5 |
| 20260505121020 | 48 | 148 | 0.0 | 0.0 | 0.00 | 0.00 | 0.00 | 75 | 1006.5 |
| 20260505120927 | 48 | 148 | 0.0 | 0.0 | 0.00 | 0.00 | 0.00 | 74 | 1006.5 |
| 20260505120823 | 48 | 148 | 0.0 | 0.0 | 0.00 | 0.00 | 0.00 | 74 | 1006.5 |
| 20260505120730 | 48 | 148 | 0.0 | 0.0 | 0.00 | 0.00 | 0.00 | 74 | 1006.5 |
| 20260505120611 | 48 | 148 | 0.0 | 0.0 | 0.00 | 0.00 | 0.00 | 73 | 1006.5 |
| 20260505120537 | 48 | 148 | 0.0 | 0.0 | 0.00 | 0.00 | 0.00 | 73 | 1006.5 |
| 20260505120432 | 48 | 148 | 0.0 | 0.0 | 0.00 | 0.00 | 0.00 | 73 | 1006.5 |
| 20260505120358 | 48 | 148 | 0.0 | 0.0 | 0.00 | 0.00 | 0.00 | 72 | 1006.4 |
| 20260505120214 | 48 | 148 | 0.0 | 0.0 | 0.00 | 0.00 | 0.00 | 72 | 1006.4 |
| 20260505120132 | 48 | 148 | 0.0 | 0.0 | 0.00 | 0.00 | 0.00 | 72 | 1006.4 |
| 20260505120037 | 48 | 148 | 0.0 | 0.0 | 0.00 | 0.00 | 0.00 | 72 | 1006.4 |
| 20260505115919 | 48 | 148 | 0.0 | 0.0 | 0.00 | 0.00 | 0.00 | 71 | 1006.4 |
| 20260505115846 | 48 | 148 | 0.0 | 0.0 | 0.00 | 0.00 | 0.00 | 71 | 1006.4 |
| 20260505115722 | 48 | 148 | 0.0 | 0.0 | 0.00 | 0.00 | 0.00 | 71 | 1006.4 |
| 20260505115623 | 48 | 148 | 0.0 | 0.0 | 0.00 | 0.00 | 0.00 | 71 | 1006.4 |
| 20260505115520 | 48 | 148 | 0.0 | 0.0 | 0.00 | 0.00 | 0.00 | 71 | 1006.4 |
| 20260505115416 | 48 | 148 | 0.0 | 0.0 | 0.00 | 0.00 | 0.00 | 71 | 1006.4 |
| 20260505115323 | 49 | 148 | 0.0 | 0.0 | 0.00 | 0.00 | 0.00 | 71 | 1006.4 |
| 20260505115228 | 49 | 148 | 0.0 | 0.0 | 0.00 | 0.00 | 0.00 | 71 | 1006.4 |
| 20260505115128 | 49 | 148 | 0.0 | 0.0 | 0.00 | 0.00 | 0.00 | 70 | 1006.4 |
| 20260505115023 | 49 | 148 | 0.0 | 0.0 | 0.00 | 0.00 | 0.00 | 70 | 1006.4 |
| 20260505114928 | 49 | 148 | 0.0 | 0.0 | 0.00 | 0.00 | 0.00 | 70 | 1006.4 |
| 20260505114854 | 49 | 148 | 0.0 | 0.0 | 0.00 | 0.00 | 0.00 | 70 | 1006.4 |
| 20260505114730 | 49 | 148 | 0.0 | 0.0 | 0.00 | 0.00 | 0.00 | 69 | 1006.4 |
| 20260505114657 | 49 | 148 | 0.0 | 0.0 | 0.00 | 0.00 | 0.00 | 69 | 1006.4 |
| 20260505114512 | 49 | 148 | 0.0 | 0.0 | 0.00 | 0.00 | 0.00 | 70 | 1006.3 |
| 20260505114413 | 49 | 148 | 0.0 | 0.0 | 0.00 | 0.00 | 0.00 | 69 | 1006.4 |
| 20260505114318 | 49 | 148 | 0.0 | 0.0 | 0.00 | 0.00 | 0.00 | 69 | 1006.4 |
| 20260505114218 | 49 | 148 | 0.0 | 0.0 | 0.00 | 0.00 | 0.00 | 69 | 1006.4 |
| 20260505114123 | 49 | 148 | 0.0 | 0.0 | 0.00 | 0.00 | 0.00 | 69 | 1006.4 |
| 20260505114020 | 49 | 148 | 0.0 | 0.0 | 0.00 | 0.00 | 0.00 | 69 | 1006.4 |
| 20260505113926 | 49 | 148 | 0.0 | 0.0 | 0.00 | 0.00 | 0.00 | 69 | 1006.4 |
| 20260505113823 | 49 | 148 | 0.0 | 0.0 | 0.00 | 0.00 | 0.00 | 69 | 1006.3 |
| 20260505113734 | 49 | 148 | 0.0 | 0.0 | 0.00 | 0.00 | 0.00 | 70 | 1006.3 |
| 20260505113629 | 49 | 148 | 0.0 | 0.0 | 0.00 | 0.00 | 0.00 | 69 | 1006.4 |
| 20260505113553 | 49 | 148 | 0.0 | 0.0 | 0.00 | 0.00 | 0.00 | 69 | 1006.4 |
| 20260505113429 | 49 | 148 | 0.0 | 0.0 | 0.00 | 0.00 | 0.00 | 69 | 1006.4 |
| 20260505113333 | 49 | 148 | 0.0 | 0.0 | 0.00 | 0.00 | 0.00 | 69 | 1006.4 |
| 20260505113240 | 49 | 148 | 0.0 | 0.0 | 0.00 | 0.00 | 0.00 | 69 | 1006.4 |
| 20260505113134 | 49 | 148 | 0.0 | 0.0 | 0.00 | 0.00 | 0.00 | 68 | 1006.4 |
| 20260505113038 | 49 | 148 | 0.0 | 0.0 | 0.00 | 0.00 | 0.00 | 68 | 1006.4 |
| 20260505112919 | 49 | 148 | 0.0 | 0.0 | 0.00 | 0.00 | 0.00 | 68 | 1006.4 |
| 20260505112817 | 49 | 148 | 0.0 | 0.0 | 0.00 | 0.00 | 0.00 | 68 | 1006.4 |
| 20260505112725 | 49 | 148 | 0.0 | 0.0 | 0.00 | 0.00 | 0.00 | 67 | 1006.4 |
| 20260505112620 | 49 | 148 | 0.0 | 0.0 | 0.00 | 0.00 | 0.00 | 67 | 1006.4 |
| 20260505112545 | 49 | 148 | 0.0 | 0.0 | 0.00 | 0.00 | 0.00 | 67 | 1006.4 |
| 20260505112450 | 49 | 148 | 0.0 | 0.0 | 0.00 | 0.00 | 0.00 | 67 | 1006.4 |
| 20260505112324 | 49 | 148 | 0.0 | 0.0 | 0.00 | 0.00 | 0.00 | 67 | 1006.4 |
| 20260505112226 | 49 | 148 | 0.0 | 0.0 | 0.00 | 0.00 | 0.00 | 66 | 1006.4 |
| 20260505112153 | 49 | 148 | 0.0 | 0.0 | 0.00 | 0.00 | 0.00 | 66 | 1006.4 |
| 20260505112036 | 50 | 148 | 0.0 | 0.0 | 0.00 | 0.00 | 0.00 | 66 | 1006.4 |
| 20260505111911 | 50 | 148 | 0.0 | 0.0 | 0.00 | 0.00 | 0.00 | 66 | 1006.4 |
| 20260505111827 | 50 | 148 | 0.0 | 0.0 | 0.00 | 0.00 | 0.00 | 66 | 1006.4 |
| 20260505111712 | 50 | 148 | 0.0 | 0.0 | 0.00 | 0.00 | 0.00 | 66 | 1006.4 |
| 20260505111640 | 50 | 148 | 0.0 | 0.0 | 0.00 | 0.00 | 0.00 | 66 | 1006.4 |
| 20260505111520 | 50 | 148 | 0.0 | 0.0 | 0.00 | 0.00 | 0.00 | 66 | 1006.4 |
| 20260505111417 | 50 | 148 | 0.0 | 0.0 | 0.00 | 0.00 | 0.00 | 65 | 1006.3 |
| 20260505111315 | 50 | 148 | 0.0 | 0.0 | 0.00 | 0.00 | 0.00 | 65 | 1006.3 |
| 20260505111222 | 50 | 148 | 0.0 | 0.0 | 0.00 | 0.00 | 0.00 | 65 | 1006.3 |
| 20260505111117 | 50 | 148 | 0.0 | 0.0 | 0.00 | 0.00 | 0.00 | 65 | 1006.3 |
| 20260505111043 | 50 | 148 | 0.0 | 0.0 | 0.00 | 0.00 | 0.00 | 65 | 1006.2 |
| 20260505110919 | 50 | 148 | 0.0 | 0.0 | 0.00 | 0.00 | 0.00 | 65 | 1006.3 |
| 20260505110824 | 50 | 148 | 0.0 | 0.0 | 0.00 | 0.00 | 0.00 | 65 | 1006.2 |
| 20260505110716 | 50 | 148 | 0.0 | 0.0 | 0.00 | 0.00 | 0.00 | 65 | 1006.2 |
| 20260505110612 | 50 | 148 | 0.0 | 0.0 | 0.00 | 0.00 | 0.00 | 65 | 1006.2 |
| 20260505110538 | 50 | 148 | 0.0 | 0.0 | 0.00 | 0.00 | 0.00 | 65 | 1006.2 |
| 20260505110414 | 50 | 148 | 0.0 | 0.0 | 0.00 | 0.00 | 0.00 | 65 | 1006.2 |
| 20260505110319 | 50 | 148 | 0.0 | 0.0 | 0.00 | 0.00 | 0.00 | 65 | 1006.2 |
| 20260505110217 | 50 | 148 | 0.0 | 0.0 | 0.00 | 0.00 | 0.00 | 65 | 1006.1 |
| 20260505110120 | 50 | 148 | 0.0 | 0.0 | 0.00 | 0.00 | 0.00 | 65 | 1006.2 |
| 20260505102137 | 52 | 148 | 0.0 | 0.0 | 0.00 | 0.00 | 0.00 | 63 | 1006.0 |
| 20260505102023 | 52 | 148 | 0.0 | 0.0 | 0.00 | 0.00 | 0.00 | 64 | 1006.0 |
| 20260505101921 | 52 | 148 | 0.0 | 0.0 | 0.00 | 0.00 | 0.00 | 64 | 1006.0 |
| 20260505101827 | 52 | 148 | 0.0 | 0.0 | 0.00 | 0.00 | 0.00 | 64 | 1006.0 |
| 20260505101724 | 52 | 148 | 0.0 | 0.0 | 0.00 | 0.00 | 0.00 | 63 | 1006.0 |
| 20260505101656 | 52 | 148 | 0.0 | 0.0 | 0.00 | 0.00 | 0.00 | 63 | 1006.0 |
| 20260505101538 | 52 | 148 | 0.0 | 0.0 | 0.00 | 0.00 | 0.00 | 63 | 1006.0 |
| 20260505101416 | 53 | 148 | 0.0 | 0.0 | 0.00 | 0.00 | 0.00 | 63 | 1006.0 |
| 20260505101311 | 53 | 148 | 0.0 | 0.0 | 0.00 | 0.00 | 0.00 | 63 | 1006.0 |
| 20260505101239 | 53 | 148 | 0.0 | 0.0 | 0.00 | 0.00 | 0.00 | 63 | 1005.9 |
| 20260505101112 | 53 | 148 | 0.0 | 0.0 | 0.00 | 0.00 | 0.00 | 63 | 1005.9 |
| 20260505101019 | 53 | 148 | 0.0 | 0.0 | 0.00 | 0.00 | 0.00 | 63 | 1006.0 |
| 20260505100921 | 53 | 148 | 0.0 | 0.0 | 0.00 | 0.00 | 0.00 | 63 | 1006.0 |
| 20260505100826 | 53 | 148 | 0.0 | 0.0 | 0.00 | 0.00 | 0.00 | 63 | 1006.0 |
| 20260505100723 | 53 | 148 | 0.0 | 0.0 | 0.00 | 0.00 | 0.00 | 63 | 1006.0 |
| 20260505100631 | 53 | 148 | 0.0 | 0.0 | 0.00 | 0.00 | 0.00 | 63 | 1006.0 |
| 20260505100527 | 53 | 148 | 0.0 | 0.0 | 0.00 | 0.00 | 0.00 | 63 | 1006.0 |
| 20260505100432 | 53 | 148 | 0.0 | 0.0 | 0.00 | 0.00 | 0.00 | 63 | 1006.0 |
| 20260505100235 | 53 | 148 | 0.0 | 0.0 | 0.00 | 0.00 | 0.00 | 63 | 1006.0 |
| 20260505100133 | 53 | 148 | 0.0 | 0.0 | 0.00 | 0.00 | 0.00 | 63 | 1006.0 |
| 20260505100019 | 53 | 148 | 0.0 | 0.0 | 0.00 | 0.00 | 0.00 | 63 | 1006.0 |
| 20260505095935 | 53 | 148 | 0.0 | 0.0 | 0.00 | 0.00 | 0.00 | 63 | 1006.0 |
| 20260505095820 | 53 | 148 | 0.0 | 0.0 | 0.00 | 0.00 | 0.00 | 63 | 1006.0 |
| 20260505095719 | 53 | 148 | 0.0 | 0.0 | 0.00 | 0.00 | 0.00 | 63 | 1006.0 |
| 20260505095624 | 53 | 148 | 0.0 | 0.0 | 0.00 | 0.00 | 0.00 | 64 | 1006.0 |
| 20260505095521 | 53 | 148 | 0.0 | 0.0 | 0.00 | 0.00 | 0.00 | 64 | 1006.0 |
| 20260505095451 | 53 | 148 | 0.0 | 0.0 | 0.00 | 0.00 | 0.00 | 64 | 1006.0 |
| 20260505095328 | 54 | 148 | 0.0 | 0.0 | 0.00 | 0.00 | 0.00 | 64 | 1006.0 |
| 20260505095237 | 53 | 148 | 0.0 | 0.0 | 0.00 | 0.00 | 0.00 | 64 | 1006.0 |
| 20260505095111 | 54 | 148 | 0.0 | 0.0 | 0.00 | 0.00 | 0.00 | 65 | 1006.0 |
| 20260505095037 | 54 | 148 | 0.0 | 0.0 | 0.00 | 0.00 | 0.00 | 65 | 1006.0 |
| 20260505094914 | 54 | 148 | 0.0 | 0.0 | 0.00 | 0.00 | 0.00 | 65 | 1005.9 |
| 20260505094839 | 54 | 148 | 0.0 | 0.0 | 0.00 | 0.00 | 0.00 | 65 | 1005.9 |
| 20260505094743 | 54 | 148 | 0.0 | 0.0 | 0.00 | 0.00 | 0.00 | 64 | 1005.9 |
| 20260505094647 | 54 | 148 | 0.0 | 0.0 | 0.00 | 0.00 | 0.00 | 64 | 1006.0 |
| 20260505094518 | 54 | 148 | 0.0 | 0.0 | 0.00 | 0.00 | 0.00 | 63 | 1005.9 |
| 20260505094425 | 54 | 148 | 0.0 | 0.0 | 0.00 | 0.00 | 0.00 | 63 | 1005.9 |
| 20260505094323 | 54 | 148 | 0.0 | 0.0 | 0.00 | 0.00 | 0.00 | 62 | 1005.9 |
| 20260505094230 | 53 | 148 | 0.0 | 0.0 | 0.00 | 0.00 | 0.00 | 62 | 1005.9 |
| 20260505094125 | 54 | 148 | 0.0 | 0.0 | 0.00 | 0.00 | 0.00 | 61 | 1005.9 |
| 20260505094031 | 54 | 148 | 0.0 | 0.0 | 0.00 | 0.00 | 0.00 | 60 | 1005.9 |
| 20260505093911 | 53 | 148 | 0.0 | 0.0 | 0.00 | 0.00 | 0.00 | 60 | 1006.0 |
| 20260505093827 | 54 | 148 | 0.0 | 0.0 | 0.00 | 0.00 | 0.00 | 60 | 1006.0 |
| 20260505093733 | 54 | 148 | 0.0 | 0.0 | 0.00 | 0.00 | 0.00 | 60 | 1006.0 |
| 20260505093640 | 54 | 148 | 0.0 | 0.0 | 0.00 | 0.00 | 0.00 | 60 | 1006.0 |
| 20260505093515 | 54 | 148 | 0.0 | 0.0 | 0.00 | 0.00 | 0.00 | 60 | 1006.0 |
| 20260505093412 | 54 | 148 | 0.0 | 0.0 | 0.00 | 0.00 | 0.00 | 60 | 1006.0 |
| 20260505093337 | 54 | 148 | 0.0 | 0.0 | 0.00 | 0.00 | 0.00 | 60 | 1006.0 |
| 20260505093220 | 54 | 148 | 0.0 | 0.0 | 0.00 | 0.00 | 0.00 | 60 | 1006.0 |
| 20260505093125 | 54 | 148 | 0.0 | 0.0 | 0.00 | 0.00 | 0.00 | 60 | 1006.0 |
| 20260505093023 | 54 | 148 | 0.0 | 0.0 | 0.00 | 0.00 | 0.00 | 60 | 1006.0 |
| 20260505092949 | 54 | 148 | 0.0 | 0.0 | 0.00 | 0.00 | 0.00 | 61 | 1006.0 |
| 20260505092826 | 54 | 148 | 0.0 | 0.0 | 0.00 | 0.00 | 0.00 | 61 | 1006.0 |
| 20260505092735 | 54 | 148 | 0.0 | 0.0 | 0.00 | 0.00 | 0.00 | 61 | 1006.0 |
| 20260505092614 | 54 | 148 | 0.0 | 0.0 | 0.00 | 0.00 | 0.00 | 61 | 1006.1 |
| 20260505092540 | 54 | 148 | 0.0 | 0.0 | 0.00 | 0.00 | 0.00 | 61 | 1006.1 |
| 20260505092417 | 54 | 148 | 0.0 | 0.0 | 0.00 | 0.00 | 0.00 | 61 | 1006.1 |
| 20260505092314 | 54 | 148 | 0.0 | 0.0 | 0.00 | 0.00 | 0.00 | 61 | 1006.1 |
| 20260505092213 | 54 | 148 | 0.0 | 0.0 | 0.00 | 0.00 | 0.00 | 61 | 1006.1 |
| 20260505092116 | 54 | 148 | 0.0 | 0.0 | 0.00 | 0.00 | 0.00 | 61 | 1006.0 |
| 20260505092014 | 54 | 148 | 0.0 | 0.0 | 0.00 | 0.00 | 0.00 | 61 | 1006.0 |
| 20260505091924 | 54 | 148 | 0.0 | 0.0 | 0.00 | 0.00 | 0.00 | 62 | 1006.1 |
| 20260505091841 | 54 | 148 | 0.0 | 0.0 | 0.00 | 0.00 | 0.00 | 62 | 1006.0 |
| 20260505091726 | 54 | 148 | 0.0 | 0.0 | 0.00 | 0.00 | 0.00 | 62 | 1006.0 |
| 20260505091632 | 54 | 148 | 0.0 | 0.0 | 0.00 | 0.00 | 0.00 | 62 | 1006.0 |
| 20260505091526 | 54 | 148 | 0.0 | 0.0 | 0.00 | 0.00 | 0.00 | 62 | 1006.0 |
| 20260505091424 | 54 | 148 | 0.0 | 0.0 | 0.00 | 0.00 | 0.00 | 63 | 1006.0 |
| 20260505091330 | 54 | 148 | 0.0 | 0.0 | 0.00 | 0.00 | 0.00 | 63 | 1006.0 |
| 20260505091237 | 54 | 148 | 0.0 | 0.0 | 0.00 | 0.00 | 0.00 | 63 | 1006.0 |
| 20260505091115 | 54 | 148 | 0.0 | 0.0 | 0.00 | 0.00 | 0.00 | 63 | 1006.0 |
| 20260505091011 | 54 | 148 | 0.0 | 0.0 | 0.00 | 0.00 | 0.00 | 62 | 1006.0 |
| 20260505090938 | 54 | 148 | 0.0 | 0.0 | 0.00 | 0.00 | 0.00 | 62 | 1006.0 |
| 20260505090816 | 54 | 148 | 0.0 | 0.0 | 0.00 | 0.00 | 0.00 | 62 | 1006.0 |
| 20260505090715 | 54 | 148 | 0.0 | 0.0 | 0.00 | 0.00 | 0.00 | 61 | 1006.0 |
| 20260505090621 | 54 | 148 | 0.0 | 0.0 | 0.00 | 0.00 | 0.00 | 61 | 1006.0 |
| 20260505090531 | 54 | 148 | 0.0 | 0.0 | 0.00 | 0.00 | 0.00 | 61 | 1006.0 |
| 20260505090428 | 54 | 148 | 0.0 | 0.0 | 0.00 | 0.00 | 0.00 | 61 | 1006.0 |
| 20260505090354 | 54 | 148 | 0.0 | 0.0 | 0.00 | 0.00 | 0.00 | 61 | 1006.0 |
| 20260505090248 | 54 | 148 | 0.0 | 0.0 | 0.00 | 0.00 | 0.00 | 61 | 1006.0 |
| 20260505090137 | 54 | 148 | 0.0 | 0.0 | 0.00 | 0.00 | 0.00 | 61 | 1005.9 |
| 20260505090014 | 54 | 148 | 0.0 | 0.0 | 0.00 | 0.00 | 0.00 | 61 | 1006.0 |
| 20260505085939 | 54 | 148 | 0.0 | 0.0 | 0.00 | 0.00 | 0.00 | 60 | 1006.0 |
| 20260505085836 | 54 | 148 | 0.0 | 0.0 | 0.00 | 0.00 | 0.00 | 60 | 1006.0 |
| 20260505085727 | 54 | 148 | 0.0 | 0.0 | 0.00 | 0.00 | 0.00 | 60 | 1006.0 |
| 20260505085621 | 54 | 148 | 0.0 | 0.0 | 0.00 | 0.00 | 0.00 | 59 | 1005.9 |
| 20260505085526 | 54 | 148 | 0.0 | 0.0 | 0.00 | 0.00 | 0.00 | 59 | 1005.9 |
| 20260505085441 | 54 | 148 | 0.0 | 0.0 | 0.00 | 0.00 | 0.00 | 59 | 1005.9 |
| 20260505085327 | 54 | 148 | 0.0 | 0.0 | 0.00 | 0.00 | 0.00 | 58 | 1005.9 |
| 20260505085223 | 54 | 148 | 0.0 | 0.0 | 0.00 | 0.00 | 0.00 | 58 | 1005.9 |
| 20260505085132 | 54 | 148 | 0.0 | 0.0 | 0.00 | 0.00 | 0.00 | 57 | 1005.9 |
| 20260505085011 | 54 | 148 | 0.0 | 0.0 | 0.00 | 0.00 | 0.00 | 56 | 1005.9 |
| 20260505084938 | 54 | 148 | 0.0 | 0.0 | 0.00 | 0.00 | 0.00 | 56 | 1005.9 |
| 20260505084815 | 54 | 148 | 0.0 | 0.0 | 0.00 | 0.00 | 0.00 | 57 | 1005.9 |
| 20260505084714 | 54 | 148 | 0.0 | 0.0 | 0.00 | 0.00 | 0.00 | 57 | 1005.9 |
| 20260505084610 | 54 | 148 | 0.0 | 0.0 | 0.00 | 0.00 | 0.00 | 57 | 1005.8 |
| 20260505084515 | 54 | 148 | 0.0 | 0.0 | 0.00 | 0.00 | 0.00 | 57 | 1005.9 |
| 20260505084420 | 54 | 148 | 0.0 | 0.0 | 0.00 | 0.00 | 0.00 | 57 | 1005.8 |
| 20260505084319 | 54 | 148 | 0.0 | 0.0 | 0.00 | 0.00 | 0.00 | 57 | 1005.9 |
| 20260505084226 | 54 | 148 | 0.0 | 0.0 | 0.00 | 0.00 | 0.00 | 57 | 1005.9 |
| 20260505084121 | 54 | 148 | 0.0 | 0.0 | 0.00 | 0.00 | 0.00 | 57 | 1005.8 |
| 20260505084025 | 54 | 148 | 0.0 | 0.0 | 0.00 | 0.00 | 0.00 | 56 | 1005.8 |
| 20260505083922 | 54 | 148 | 0.0 | 0.0 | 0.00 | 0.00 | 0.00 | 55 | 1005.9 |
| 20260505083828 | 54 | 148 | 0.0 | 0.0 | 0.00 | 0.00 | 0.00 | 55 | 1005.9 |
| 20260505083726 | 54 | 148 | 0.0 | 0.0 | 0.00 | 0.00 | 0.00 | 54 | 1005.9 |
| 20260505083614 | 54 | 148 | 0.0 | 0.0 | 0.00 | 0.00 | 0.00 | 53 | 1005.9 |
| 20260505083511 | 55 | 148 | 0.0 | 0.0 | 0.00 | 0.00 | 0.00 | 53 | 1005.9 |
| 20260505083437 | 55 | 148 | 0.0 | 0.0 | 0.00 | 0.00 | 0.00 | 53 | 1005.9 |
| 20260505083312 | 55 | 148 | 0.0 | 0.0 | 0.00 | 0.00 | 0.00 | 52 | 1005.9 |
| 20260505083220 | 55 | 148 | 0.0 | 0.0 | 0.00 | 0.00 | 0.00 | 52 | 1005.9 |
| 20260505083134 | 55 | 148 | 0.0 | 0.0 | 0.00 | 0.00 | 0.00 | 51 | 1005.9 |
| 20260505083038 | 55 | 148 | 0.0 | 0.0 | 0.00 | 0.00 | 0.00 | 51 | 1005.9 |
| 20260505082914 | 55 | 148 | 0.0 | 0.0 | 0.00 | 0.00 | 0.00 | 51 | 1005.9 |
| 20260505082824 | 55 | 148 | 0.0 | 0.0 | 0.00 | 0.00 | 0.00 | 51 | 1005.9 |
| 20260505082722 | 55 | 148 | 0.0 | 0.0 | 0.00 | 0.00 | 0.00 | 50 | 1005.9 |
| 20260505082651 | 55 | 148 | 0.0 | 0.0 | 0.00 | 0.00 | 0.00 | 50 | 1005.9 |
| 20260505082531 | 55 | 148 | 0.0 | 0.0 | 0.00 | 0.00 | 0.00 | 49 | 1005.9 |
| 20260505082428 | 56 | 148 | 0.0 | 0.0 | 0.00 | 0.00 | 0.00 | 49 | 1005.9 |
| 20260505082326 | 56 | 148 | 0.0 | 0.0 | 0.00 | 0.00 | 0.00 | 48 | 1005.9 |
| 20260505082233 | 56 | 148 | 0.0 | 0.0 | 0.00 | 0.00 | 0.00 | 48 | 1005.9 |
| 20260505082111 | 56 | 148 | 0.0 | 0.0 | 0.00 | 0.00 | 0.00 | 48 | 1005.9 |
| 20260505082036 | 56 | 148 | 0.0 | 0.0 | 0.00 | 0.00 | 0.00 | 48 | 1005.9 |
| 20260505081913 | 56 | 148 | 0.0 | 0.0 | 0.00 | 0.00 | 0.00 | 48 | 1006.0 |
| 20260505081811 | 56 | 148 | 0.0 | 0.0 | 0.00 | 0.00 | 0.00 | 48 | 1005.9 |
| 20260505081739 | 56 | 148 | 0.0 | 0.0 | 0.00 | 0.00 | 0.00 | 48 | 1005.9 |
| 20260505081613 | 56 | 148 | 0.0 | 0.0 | 0.00 | 0.00 | 0.00 | 47 | 1005.9 |
| 20260505081539 | 56 | 148 | 0.0 | 0.0 | 0.00 | 0.00 | 0.00 | 47 | 1005.9 |
| 20260505081438 | 56 | 148 | 0.0 | 0.0 | 0.00 | 0.00 | 0.00 | 47 | 1005.9 |
| 20260505081322 | 56 | 148 | 0.0 | 1.0 | 0.00 | 0.00 | 0.00 | 47 | 1005.9 |
| 20260505081249 | 56 | 148 | 0.0 | 2.0 | 0.00 | 0.00 | 0.00 | 47 | 1005.9 |
| 20260505081120 | 56 | 148 | 0.0 | 3.0 | 0.00 | 0.00 | 0.00 | 47 | 1005.9 |
| 20260505081017 | 56 | 148 | 0.0 | 3.0 | 0.00 | 0.00 | 0.00 | 47 | 1005.9 |
| 20260505080924 | 56 | 148 | 0.0 | 3.0 | 0.00 | 0.00 | 0.00 | 47 | 1005.8 |
| 20260505080822 | 56 | 148 | 0.0 | 3.0 | 0.00 | 0.00 | 0.00 | 47 | 1005.9 |
| 20260505080713 | 56 | 148 | 0.0 | 3.0 | 0.00 | 0.00 | 0.00 | 47 | 1005.9 |
| 20260505080627 | 56 | 148 | 0.0 | 3.0 | 0.00 | 0.00 | 0.00 | 47 | 1005.9 |
| 20260505080513 | 57 | 148 | 1.0 | 3.0 | 0.00 | 0.00 | 0.00 | 47 | 1005.9 |
| 20260505080429 | 57 | 148 | 2.0 | 3.0 | 0.00 | 0.00 | 0.00 | 47 | 1005.9 |
| 20260505080335 | 57 | 148 | 2.0 | 3.0 | 0.00 | 0.00 | 0.00 | 47 | 1005.8 |
| 20260505080211 | 57 | 148 | 1.0 | 2.0 | 0.00 | 0.00 | 0.00 | 47 | 1005.9 |
| 20260505080129 | 57 | 148 | 0.0 | 2.0 | 0.00 | 0.00 | 0.00 | 46 | 1005.9 |
| 20260505080016 | 57 | 148 | 0.0 | 2.0 | 0.00 | 0.00 | 0.00 | 46 | 1005.9 |
| 20260505075914 | 57 | 148 | 1.0 | 2.0 | 0.00 | 0.00 | 0.00 | 46 | 1005.9 |
| 20260505075840 | 57 | 148 | 1.0 | 2.0 | 0.00 | 0.00 | 0.00 | 45 | 1005.9 |
| 20260505075718 | 57 | 148 | 1.0 | 2.0 | 0.00 | 0.00 | 0.00 | 45 | 1005.9 |
| 20260505075621 | 57 | 148 | 1.0 | 3.0 | 0.00 | 0.00 | 0.00 | 45 | 1005.8 |
| 20260505075547 | 57 | 148 | 1.0 | 3.0 | 0.00 | 0.00 | 0.00 | 45 | 1005.9 |
| 20260505075421 | 57 | 148 | 1.0 | 3.0 | 0.00 | 0.00 | 0.00 | 45 | 1005.8 |
| 20260505075317 | 57 | 148 | 0.0 | 3.0 | 0.00 | 0.00 | 0.00 | 45 | 1005.7 |
| 20260505075230 | 57 | 148 | 1.0 | 3.0 | 0.00 | 0.00 | 0.00 | 45 | 1005.7 |
| 20260505075126 | 57 | 148 | 0.0 | 3.0 | 0.00 | 0.00 | 0.00 | 45 | 1005.8 |
| 20260505075030 | 57 | 148 | 1.0 | 3.0 | 0.00 | 0.00 | 0.00 | 45 | 1005.8 |
| 20260505074926 | 57 | 148 | 1.0 | 3.0 | 0.00 | 0.00 | 0.00 | 45 | 1005.8 |
| 20260505074832 | 57 | 148 | 1.0 | 3.0 | 0.00 | 0.00 | 0.00 | 44 | 1005.8 |
| 20260505074729 | 57 | 148 | 2.0 | 3.0 | 0.00 | 0.00 | 0.00 | 44 | 1005.8 |
| 20260505074637 | 57 | 148 | 2.0 | 3.0 | 0.00 | 0.00 | 0.00 | 44 | 1005.8 |
| 20260505074517 | 57 | 148 | 2.0 | 3.0 | 0.00 | 0.00 | 0.00 | 45 | 1005.8 |
| 20260505074444 | 57 | 148 | 2.0 | 3.0 | 0.00 | 0.00 | 0.00 | 45 | 1005.8 |
| 20260505074320 | 57 | 148 | 2.0 | 3.0 | 0.00 | 0.00 | 0.00 | 45 | 1005.9 |
| 20260505074219 | 57 | 148 | 1.0 | 3.0 | 0.00 | 0.00 | 0.00 | 45 | 1005.9 |
| 20260505074125 | 57 | 148 | 1.0 | 3.0 | 0.00 | 0.00 | 0.00 | 45 | 1005.8 |
| 20260505074023 | 58 | 148 | 1.0 | 3.0 | 0.00 | 0.00 | 0.00 | 45 | 1005.8 |
| 20260505073932 | 58 | 148 | 1.0 | 3.0 | 0.00 | 0.00 | 0.00 | 44 | 1005.8 |
| 20260505073827 | 58 | 148 | 2.0 | 3.0 | 0.00 | 0.00 | 0.00 | 44 | 1005.7 |
| 20260505073735 | 58 | 148 | 2.0 | 3.0 | 0.00 | 0.00 | 0.00 | 44 | 1005.7 |
| 20260505073611 | 58 | 148 | 1.0 | 2.0 | 0.00 | 0.00 | 0.00 | 44 | 1005.7 |
| 20260505073536 | 58 | 148 | 1.0 | 2.0 | 0.00 | 0.00 | 0.00 | 44 | 1005.7 |
| 20260505073412 | 58 | 148 | 0.0 | 2.0 | 0.00 | 0.00 | 0.00 | 44 | 1005.7 |
| 20260505073329 | 58 | 148 | 1.0 | 3.0 | 0.00 | 0.00 | 0.00 | 44 | 1005.7 |
| 20260505073221 | 58 | 148 | 1.0 | 3.0 | 0.00 | 0.00 | 0.00 | 44 | 1005.7 |
| 20260505073136 | 58 | 148 | 0.0 | 3.0 | 0.00 | 0.00 | 0.00 | 43 | 1005.7 |
| 20260505073041 | 58 | 148 | 0.0 | 3.0 | 0.00 | 0.00 | 0.00 | 43 | 1005.6 |
| 20260505072945 | 58 | 148 | 0.0 | 3.0 | 0.00 | 0.00 | 0.00 | 42 | 1005.7 |
| 20260505072850 | 58 | 148 | 1.0 | 3.0 | 0.00 | 0.00 | 0.00 | 42 | 1005.7 |
| 20260505072727 | 58 | 148 | 1.0 | 3.0 | 0.00 | 0.00 | 0.00 | 42 | 1005.7 |
| 20260505072623 | 58 | 148 | 2.0 | 3.0 | 0.00 | 0.00 | 0.00 | 42 | 1005.7 |
| 20260505072548 | 58 | 148 | 2.0 | 3.0 | 0.00 | 0.00 | 0.00 | 42 | 1005.7 |
| 20260505072434 | 58 | 148 | 2.0 | 3.0 | 0.00 | 0.00 | 0.00 | 42 | 1005.7 |
| 20260505072313 | 58 | 148 | 2.0 | 3.0 | 0.00 | 0.00 | 0.00 | 41 | 1005.7 |
| 20260505072212 | 58 | 148 | 2.0 | 3.0 | 0.00 | 0.00 | 0.00 | 41 | 1005.7 |
| 20260505072118 | 58 | 148 | 2.0 | 3.0 | 0.00 | 0.00 | 0.00 | 41 | 1005.6 |
| 20260505072016 | 58 | 148 | 1.0 | 2.0 | 0.00 | 0.00 | 0.00 | 41 | 1005.6 |
| 20260505071921 | 58 | 148 | 0.0 | 2.0 | 0.00 | 0.00 | 0.00 | 41 | 1005.7 |
| 20260505071817 | 58 | 148 | 0.0 | 2.0 | 0.00 | 0.00 | 0.00 | 41 | 1005.6 |
| 20260505071723 | 58 | 148 | 1.0 | 2.0 | 0.00 | 0.00 | 0.00 | 41 | 1005.6 |
| 20260505071655 | 58 | 148 | 1.0 | 3.0 | 0.00 | 0.00 | 0.00 | 41 | 1005.6 |
| 20260505071530 | 58 | 148 | 1.0 | 3.0 | 0.00 | 0.00 | 0.00 | 41 | 1005.6 |
| 20260505071455 | 58 | 148 | 1.0 | 3.0 | 0.00 | 0.00 | 0.00 | 41 | 1005.6 |
| 20260505071311 | 59 | 148 | 0.0 | 3.0 | 0.00 | 0.00 | 0.00 | 41 | 1005.6 |
| 20260505071239 | 59 | 148 | 0.0 | 3.0 | 0.00 | 0.00 | 0.00 | 41 | 1005.6 |
| 20260505071113 | 59 | 148 | 0.0 | 3.0 | 0.00 | 0.00 | 0.00 | 41 | 1005.5 |
| 20260505071038 | 59 | 148 | 1.0 | 3.0 | 0.00 | 0.00 | 0.00 | 41 | 1005.5 |
| 20260505070919 | 59 | 148 | 2.0 | 3.0 | 0.00 | 0.00 | 0.00 | 40 | 1005.5 |
| 20260505070815 | 59 | 148 | 2.0 | 3.0 | 0.00 | 0.00 | 0.00 | 40 | 1005.5 |
| 20260505070720 | 59 | 148 | 2.0 | 3.0 | 0.00 | 0.00 | 0.00 | 40 | 1005.5 |
| 20260505070648 | 59 | 148 | 2.0 | 3.0 | 0.00 | 0.00 | 0.00 | 40 | 1005.5 |
| 20260505070600 | 59 | 148 | 1.0 | 3.0 | 0.00 | 0.00 | 0.00 | 41 | 1005.5 |
| 20260505070422 | 59 | 148 | 0.0 | 1.0 | 0.00 | 0.00 | 0.00 | 40 | 1005.5 |
| 20260505070320 | 59 | 148 | 0.0 | 1.0 | 0.00 | 0.00 | 0.00 | 40 | 1005.5 |
| 20260505070226 | 59 | 148 | 0.0 | 1.0 | 0.00 | 0.00 | 0.00 | 40 | 1005.5 |
| 20260505070130 | 59 | 148 | 0.0 | 2.0 | 0.00 | 0.00 | 0.00 | 40 | 1005.5 |
| 20260505070013 | 59 | 148 | 0.0 | 2.0 | 0.00 | 0.00 | 0.00 | 40 | 1005.5 |
| 20260505065930 | 59 | 148 | 0.0 | 2.0 | 0.00 | 0.00 | 0.00 | 40 | 1005.5 |
| 20260505065837 | 59 | 148 | 0.0 | 2.0 | 0.00 | 0.00 | 0.00 | 40 | 1005.5 |
| 20260505065715 | 59 | 148 | 0.0 | 2.0 | 0.00 | 0.00 | 0.00 | 40 | 1005.4 |
| 20260505065620 | 59 | 148 | 0.0 | 2.0 | 0.00 | 0.00 | 0.00 | 40 | 1005.4 |
| 20260505065518 | 59 | 148 | 0.0 | 2.0 | 0.00 | 0.00 | 0.00 | 40 | 1005.4 |
| 20260505065420 | 59 | 148 | 1.0 | 2.0 | 0.00 | 0.00 | 0.00 | 39 | 1005.4 |
| 20260505065327 | 59 | 148 | 1.0 | 3.0 | 0.00 | 0.00 | 0.00 | 39 | 1005.4 |
| 20260505065224 | 59 | 148 | 0.0 | 3.0 | 0.00 | 0.00 | 0.00 | 39 | 1005.4 |
| 20260505065132 | 59 | 148 | 0.0 | 3.0 | 0.00 | 0.00 | 0.00 | 39 | 1005.4 |
| 20260505065026 | 59 | 148 | 0.0 | 3.0 | 0.00 | 0.00 | 0.00 | 39 | 1005.3 |
| 20260505064912 | 59 | 148 | 0.0 | 3.0 | 0.00 | 0.00 | 0.00 | 39 | 1005.4 |
| 20260505064812 | 59 | 148 | 0.0 | 4.0 | 0.00 | 0.00 | 0.00 | 39 | 1005.3 |
| 20260505064740 | 59 | 148 | 1.0 | 4.0 | 0.00 | 0.00 | 0.00 | 39 | 1005.3 |
| 20260505064635 | 59 | 148 | 2.0 | 4.0 | 0.00 | 0.00 | 0.00 | 39 | 1005.4 |
| 20260505064521 | 59 | 148 | 2.0 | 4.0 | 0.00 | 0.00 | 0.00 | 39 | 1005.3 |
| 20260505064439 | 59 | 148 | 2.0 | 4.0 | 0.00 | 0.00 | 0.00 | 39 | 1005.3 |
| 20260505064324 | 59 | 148 | 2.0 | 4.0 | 0.00 | 0.00 | 0.00 | 39 | 1005.3 |
| 20260505064249 | 59 | 148 | 2.0 | 4.0 | 0.00 | 0.00 | 0.00 | 39 | 1005.3 |
| 20260505064123 | 59 | 148 | 2.0 | 4.0 | 0.00 | 0.00 | 0.00 | 39 | 1005.3 |
| 20260505064028 | 59 | 148 | 3.0 | 4.0 | 0.00 | 0.00 | 0.00 | 39 | 1005.3 |
| 20260505063928 | 59 | 148 | 3.0 | 4.0 | 0.00 | 0.00 | 0.00 | 39 | 1005.3 |
| 20260505063833 | 59 | 148 | 2.0 | 3.0 | 0.00 | 0.00 | 0.00 | 39 | 1005.3 |
| 20260505063712 | 59 | 148 | 2.0 | 3.0 | 0.00 | 0.00 | 0.00 | 39 | 1005.3 |
| 20260505063627 | 59 | 148 | 2.0 | 4.0 | 0.00 | 0.00 | 0.00 | 39 | 1005.3 |
| 20260505063532 | 59 | 148 | 3.0 | 4.0 | 0.00 | 0.00 | 0.00 | 39 | 1005.4 |
| 20260505063429 | 59 | 148 | 2.0 | 5.0 | 0.00 | 0.00 | 0.00 | 39 | 1005.3 |
| 20260505063339 | 59 | 148 | 2.0 | 5.0 | 0.00 | 0.00 | 0.00 | 39 | 1005.3 |
| 20260505063213 | 59 | 148 | 2.0 | 5.0 | 0.00 | 0.00 | 0.00 | 39 | 1005.4 |
| 20260505063132 | 59 | 148 | 2.0 | 5.0 | 0.00 | 0.00 | 0.00 | 39 | 1005.4 |
| 20260505063013 | 59 | 148 | 2.0 | 5.0 | 0.00 | 0.00 | 0.00 | 39 | 1005.4 |
| 20260505062938 | 59 | 148 | 2.0 | 5.0 | 0.00 | 0.00 | 0.00 | 39 | 1005.4 |
| 20260505062833 | 59 | 148 | 3.0 | 5.0 | 0.00 | 0.00 | 0.00 | 39 | 1005.4 |
| 20260505062741 | 59 | 148 | 3.0 | 5.0 | 0.00 | 0.00 | 0.00 | 39 | 1005.4 |
| 20260505062620 | 59 | 148 | 4.0 | 5.0 | 0.00 | 0.00 | 0.00 | 39 | 1005.3 |
| 20260505062518 | 59 | 142 | 4.0 | 5.0 | 0.00 | 0.00 | 0.00 | 40 | 1005.3 |
| 20260505062425 | 59 | 133 | 3.0 | 6.0 | 0.00 | 0.00 | 0.00 | 39 | 1005.3 |
| 20260505062321 | 59 | 100 | 3.0 | 4.0 | 0.00 | 0.00 | 0.00 | 39 | 1005.4 |
| 20260505062230 | 59 | 99 | 3.0 | 4.0 | 0.00 | 0.00 | 0.00 | 39 | 1005.4 |
| 20260505062125 | 59 | 92 | 3.0 | 4.0 | 0.00 | 0.00 | 0.00 | 39 | 1005.4 |
| 20260505062022 | 59 | 72 | 2.0 | 4.0 | 0.00 | 0.00 | 0.00 | 39 | 1005.4 |
| 20260505061913 | 59 | 68 | 1.0 | 3.0 | 0.00 | 0.00 | 0.00 | 39 | 1005.4 |
| 20260505061829 | 59 | 68 | 0.0 | 0.0 | 0.00 | 0.00 | 0.00 | 39 | 1005.4 |
| 20260505061737 | 59 | 68 | 0.0 | 0.0 | 0.00 | 0.00 | 0.00 | 39 | 1005.3 |
| 20260505061611 | 59 | 62 | 0.0 | 0.0 | 0.00 | 0.00 | 0.00 | 39 | 1005.4 |
| 20260505061528 | 60 | 62 | 0.0 | 0.0 | 0.00 | 0.00 | 0.00 | 39 | 1005.4 |
| 20260505061434 | 60 | 62 | 0.0 | 0.0 | 0.00 | 0.00 | 0.00 | 39 | 1005.3 |
| 20260505061313 | 60 | 62 | 0.0 | 0.0 | 0.00 | 0.00 | 0.00 | 39 | 1005.3 |
| 20260505061221 | 60 | 62 | 0.0 | 0.0 | 0.00 | 0.00 | 0.00 | 39 | 1005.3 |
| 20260505061144 | 60 | 62 | 0.0 | 0.0 | 0.00 | 0.00 | 0.00 | 39 | 1005.3 |
| 20260505061048 | 60 | 62 | 0.0 | 0.0 | 0.00 | 0.00 | 0.00 | 39 | 1005.3 |
| 20260505060923 | 60 | 62 | 0.0 | 0.0 | 0.00 | 0.00 | 0.00 | 39 | 1005.3 |
| 20260505060829 | 60 | 62 | 0.0 | 0.0 | 0.00 | 0.00 | 0.00 | 39 | 1005.3 |
| 20260505060726 | 60 | 62 | 0.0 | 0.0 | 0.00 | 0.00 | 0.00 | 39 | 1005.2 |
| 20260505060635 | 60 | 62 | 0.0 | 0.0 | 0.00 | 0.00 | 0.00 | 39 | 1005.3 |
| 20260505060515 | 60 | 62 | 0.0 | 0.0 | 0.00 | 0.00 | 0.00 | 39 | 1005.2 |
| 20260505060410 | 60 | 62 | 0.0 | 0.0 | 0.00 | 0.00 | 0.00 | 39 | 1005.2 |
| 20260505060337 | 60 | 62 | 0.0 | 0.0 | 0.00 | 0.00 | 0.00 | 38 | 1005.3 |
| 20260505060224 | 60 | 62 | 0.0 | 0.0 | 0.00 | 0.00 | 0.00 | 38 | 1005.2 |
| 20260505060120 | 60 | 62 | 0.0 | 0.0 | 0.00 | 0.00 | 0.00 | 38 | 1005.2 |
| 20260505060047 | 60 | 62 | 0.0 | 0.0 | 0.00 | 0.00 | 0.00 | 38 | 1005.2 |
| 20260505055930 | 61 | 62 | 0.0 | 0.0 | 0.00 | 0.00 | 0.00 | 38 | 1005.2 |
| 20260505055825 | 61 | 62 | 0.0 | 0.0 | 0.00 | 0.00 | 0.00 | 38 | 1005.2 |
| 20260505055734 | 61 | 62 | 0.0 | 0.0 | 0.00 | 0.00 | 0.00 | 38 | 1005.2 |
| 20260505055614 | 61 | 62 | 0.0 | 0.0 | 0.00 | 0.00 | 0.00 | 38 | 1005.2 |
| 20260505055540 | 61 | 62 | 0.0 | 0.0 | 0.00 | 0.00 | 0.00 | 38 | 1005.2 |
| 20260505055415 | 61 | 62 | 0.0 | 0.0 | 0.00 | 0.00 | 0.00 | 38 | 1005.2 |
| 20260505055313 | 61 | 62 | 0.0 | 0.0 | 0.00 | 0.00 | 0.00 | 38 | 1005.2 |
| 20260505055222 | 61 | 62 | 0.0 | 0.0 | 0.00 | 0.00 | 0.00 | 38 | 1005.2 |
| 20260505055116 | 61 | 62 | 0.0 | 0.0 | 0.00 | 0.00 | 0.00 | 38 | 1005.2 |
| 20260505055043 | 61 | 62 | 0.0 | 0.0 | 0.00 | 0.00 | 0.00 | 38 | 1005.2 |
| 20260505054932 | 61 | 62 | 0.0 | 0.0 | 0.00 | 0.00 | 0.00 | 38 | 1005.2 |
| 20260505054827 | 61 | 62 | 0.0 | 0.0 | 0.00 | 0.00 | 0.00 | 38 | 1005.2 |
| 20260505054733 | 61 | 62 | 0.0 | 2.0 | 0.00 | 0.00 | 0.00 | 38 | 1005.3 |
| 20260505054641 | 61 | 62 | 0.0 | 2.0 | 0.00 | 0.00 | 0.00 | 38 | 1005.3 |
| 20260505054516 | 61 | 62 | 0.0 | 3.0 | 0.00 | 0.00 | 0.00 | 38 | 1005.1 |
| 20260505054413 | 61 | 62 | 0.0 | 3.0 | 0.00 | 0.00 | 0.00 | 38 | 1005.2 |
| 20260505054339 | 61 | 62 | 0.0 | 3.0 | 0.00 | 0.00 | 0.00 | 38 | 1005.2 |
| 20260505054220 | 62 | 62 | 0.0 | 3.0 | 0.00 | 0.00 | 0.00 | 37 | 1005.1 |
| 20260505054116 | 62 | 62 | 0.0 | 3.0 | 0.00 | 0.00 | 0.00 | 37 | 1005.1 |
| 20260505054020 | 62 | 62 | 0.0 | 3.0 | 0.00 | 0.00 | 0.00 | 37 | 1005.1 |
| 20260505053914 | 62 | 62 | 1.0 | 3.0 | 0.00 | 0.00 | 0.00 | 37 | 1005.1 |
| 20260505053838 | 62 | 62 | 1.0 | 3.0 | 0.00 | 0.00 | 0.00 | 37 | 1005.1 |
| 20260505053718 | 62 | 62 | 2.0 | 3.0 | 0.00 | 0.00 | 0.00 | 37 | 1005.1 |
| 20260505053643 | 62 | 62 | 1.0 | 3.0 | 0.00 | 0.00 | 0.00 | 37 | 1005.1 |
| 20260505053522 | 62 | 62 | 1.0 | 3.0 | 0.00 | 0.00 | 0.00 | 37 | 1005.0 |
| 20260505053415 | 62 | 62 | 1.0 | 3.0 | 0.00 | 0.00 | 0.00 | 36 | 1005.1 |
| 20260505053321 | 62 | 62 | 1.0 | 3.0 | 0.00 | 0.00 | 0.00 | 36 | 1005.0 |
| 20260505053221 | 62 | 62 | 1.0 | 3.0 | 0.00 | 0.00 | 0.00 | 36 | 1005.1 |
| 20260505053124 | 62 | 62 | 1.0 | 3.0 | 0.00 | 0.00 | 0.00 | 36 | 1005.1 |
| 20260505053019 | 62 | 62 | 1.0 | 3.0 | 0.00 | 0.00 | 0.00 | 37 | 1005.1 |
| 20260505052926 | 63 | 61 | 1.0 | 3.0 | 0.00 | 0.00 | 0.00 | 37 | 1005.1 |
| 20260505052828 | 63 | 61 | 1.0 | 3.0 | 0.00 | 0.00 | 0.00 | 37 | 1005.1 |
| 20260505052734 | 63 | 61 | 2.0 | 3.0 | 0.00 | 0.00 | 0.00 | 37 | 1005.1 |
| 20260505052632 | 63 | 61 | 2.0 | 3.0 | 0.00 | 0.00 | 0.00 | 36 | 1005.1 |
| 20260505052515 | 63 | 61 | 2.0 | 3.0 | 0.00 | 0.00 | 0.00 | 36 | 1005.1 |
| 20260505052411 | 63 | 61 | 2.0 | 3.0 | 0.00 | 0.00 | 0.00 | 36 | 1005.1 |
| 20260505052330 | 63 | 61 | 2.0 | 3.0 | 0.00 | 0.00 | 0.00 | 36 | 1005.1 |
| 20260505052226 | 63 | 61 | 2.0 | 3.0 | 0.00 | 0.00 | 0.00 | 36 | 1005.0 |
| 20260505052137 | 63 | 61 | 2.0 | 3.0 | 0.00 | 0.00 | 0.00 | 36 | 1005.1 |
| 20260505052033 | 63 | 61 | 2.0 | 3.0 | 0.00 | 0.00 | 0.00 | 36 | 1005.1 |
| 20260505051958 | 63 | 61 | 2.0 | 3.0 | 0.00 | 0.00 | 0.00 | 36 | 1005.1 |
| 20260505051812 | 63 | 61 | 2.0 | 3.0 | 0.00 | 0.00 | 0.00 | 36 | 1005.1 |
| 20260505051740 | 63 | 61 | 2.0 | 3.0 | 0.00 | 0.00 | 0.00 | 36 | 1005.1 |
| 20260505051614 | 63 | 61 | 2.0 | 4.0 | 0.00 | 0.00 | 0.00 | 36 | 1005.1 |
| 20260505051511 | 63 | 61 | 2.0 | 4.0 | 0.00 | 0.00 | 0.00 | 36 | 1005.1 |
| 20260505051441 | 63 | 61 | 2.0 | 4.0 | 0.00 | 0.00 | 0.00 | 36 | 1005.0 |
| 20260505051316 | 64 | 61 | 2.0 | 4.0 | 0.00 | 0.00 | 0.00 | 36 | 1005.0 |
| 20260505051223 | 64 | 61 | 2.0 | 4.0 | 0.00 | 0.00 | 0.00 | 36 | 1005.0 |
| 20260505051118 | 64 | 61 | 2.0 | 4.0 | 0.00 | 0.00 | 0.00 | 36 | 1005.1 |
| 20260505051043 | 64 | 60 | 2.0 | 4.0 | 0.00 | 0.00 | 0.00 | 36 | 1005.0 |
| 20260505050930 | 64 | 60 | 2.0 | 4.0 | 0.00 | 0.00 | 0.00 | 36 | 1005.0 |
| 20260505050826 | 64 | 60 | 2.0 | 4.0 | 0.00 | 0.00 | 0.00 | 36 | 1005.0 |
| 20260505050734 | 64 | 60 | 2.0 | 5.0 | 0.00 | 0.00 | 0.00 | 36 | 1005.0 |
| 20260505050611 | 64 | 59 | 2.0 | 5.0 | 0.00 | 0.00 | 0.00 | 36 | 1005.0 |
| 20260505050534 | 64 | 59 | 2.0 | 5.0 | 0.00 | 0.00 | 0.00 | 36 | 1005.0 |
| 20260505050439 | 64 | 59 | 2.0 | 5.0 | 0.00 | 0.00 | 0.00 | 36 | 1005.0 |
| 20260505050317 | 64 | 59 | 3.0 | 5.0 | 0.00 | 0.00 | 0.00 | 36 | 1005.0 |
| 20260505050216 | 64 | 59 | 3.0 | 5.0 | 0.00 | 0.00 | 0.00 | 36 | 1005.0 |
| 20260505050120 | 64 | 60 | 3.0 | 5.0 | 0.00 | 0.00 | 0.00 | 36 | 1005.0 |
| 20260505041751 | 67 | 44 | 4.0 | 9.0 | 0.00 | 0.00 | 0.00 | 33 | 1004.5 |
| 20260505041614 | 67 | 27 | 5.0 | 11.0 | 0.00 | 0.00 | 0.00 | 33 | 1004.5 |
| 20260505041512 | 67 | 28 | 5.0 | 11.0 | 0.00 | 0.00 | 0.00 | 33 | 1004.5 |
| 20260505041423 | 67 | 15 | 4.0 | 11.0 | 0.00 | 0.00 | 0.00 | 33 | 1004.5 |
| 20260505041339 | 67 | 47 | 4.0 | 11.0 | 0.00 | 0.00 | 0.00 | 33 | 1004.5 |
| 20260505041223 | 67 | 35 | 3.0 | 11.0 | 0.00 | 0.00 | 0.00 | 32 | 1004.4 |
| 20260505041116 | 67 | 27 | 4.0 | 11.0 | 0.00 | 0.00 | 0.00 | 32 | 1004.5 |
| 20260505041024 | 67 | 30 | 5.0 | 11.0 | 0.00 | 0.00 | 0.00 | 32 | 1004.4 |
| 20260505040921 | 67 | 27 | 7.0 | 11.0 | 0.00 | 0.00 | 0.00 | 32 | 1004.4 |
| 20260505040826 | 67 | 29 | 6.0 | 11.0 | 0.00 | 0.00 | 0.00 | 32 | 1004.4 |
| 20260505040722 | 67 | 32 | 5.0 | 10.0 | 0.00 | 0.00 | 0.00 | 32 | 1004.4 |
| 20260505040632 | 67 | 19 | 5.0 | 10.0 | 0.00 | 0.00 | 0.00 | 32 | 1004.4 |
| 20260505040544 | 67 | 29 | 5.0 | 10.0 | 0.00 | 0.00 | 0.00 | 32 | 1004.3 |
| 20260505040449 | 67 | 15 | 5.0 | 10.0 | 0.00 | 0.00 | 0.00 | 32 | 1004.3 |
| 20260505040325 | 67 | 34 | 5.0 | 10.0 | 0.00 | 0.00 | 0.00 | 32 | 1004.3 |
| 20260505040230 | 67 | 36 | 5.0 | 10.0 | 0.00 | 0.00 | 0.00 | 32 | 1004.3 |
| 20260505040129 | 67 | 27 | 5.0 | 10.0 | 0.00 | 0.00 | 0.00 | 32 | 1004.3 |
| 20260505040033 | 67 | 10 | 5.0 | 9.0 | 0.00 | 0.00 | 0.00 | 31 | 1004.3 |
| 20260505035914 | 67 | 15 | 5.0 | 9.0 | 0.00 | 0.00 | 0.00 | 31 | 1004.2 |
| 20260505035840 | 67 | 19 | 5.0 | 9.0 | 0.00 | 0.00 | 0.00 | 31 | 1004.2 |
| 20260505035715 | 68 | 22 | 5.0 | 8.0 | 0.00 | 0.00 | 0.00 | 31 | 1004.2 |
| 20260505035618 | 68 | 15 | 4.0 | 8.0 | 0.00 | 0.00 | 0.00 | 31 | 1004.1 |
| 20260505035515 | 68 | 15 | 4.0 | 9.0 | 0.00 | 0.00 | 0.00 | 31 | 1004.1 |
| 20260505035422 | 68 | 21 | 4.0 | 9.0 | 0.00 | 0.00 | 0.00 | 31 | 1004.1 |
| 20260505035338 | 68 | 19 | 4.0 | 9.0 | 0.00 | 0.00 | 0.00 | 31 | 1004.1 |
| 20260505035224 | 68 | 26 | 4.0 | 9.0 | 0.00 | 0.00 | 0.00 | 30 | 1004.1 |
| 20260505035124 | 68 | 22 | 4.0 | 9.0 | 0.00 | 0.00 | 0.00 | 30 | 1004.1 |
| 20260505035031 | 68 | 10 | 4.0 | 9.0 | 0.00 | 0.00 | 0.00 | 30 | 1004.1 |
| 20260505034928 | 68 | 356 | 4.0 | 9.0 | 0.00 | 0.00 | 0.00 | 30 | 1004.0 |
| 20260505034825 | 68 | 15 | 4.0 | 9.0 | 0.00 | 0.00 | 0.00 | 30 | 1004.0 |
| 20260505034734 | 68 | 19 | 5.0 | 9.0 | 0.00 | 0.00 | 0.00 | 30 | 1004.0 |
| 20260505034638 | 68 | 15 | 4.0 | 8.0 | 0.00 | 0.00 | 0.00 | 30 | 1003.9 |
| 20260505034513 | 68 | 15 | 3.0 | 8.0 | 0.00 | 0.00 | 0.00 | 30 | 1003.9 |
| 20260505034423 | 68 | 10 | 4.0 | 8.0 | 0.00 | 0.00 | 0.00 | 30 | 1003.9 |
| 20260505034317 | 69 | 19 | 4.0 | 8.0 | 0.00 | 0.00 | 0.00 | 30 | 1003.9 |
| 20260505034215 | 69 | 40 | 4.0 | 8.0 | 0.00 | 0.00 | 0.00 | 30 | 1003.9 |
| 20260505034118 | 69 | 15 | 4.0 | 8.0 | 0.00 | 0.00 | 0.00 | 29 | 1003.8 |
| 20260505034014 | 69 | 15 | 5.0 | 8.0 | 0.00 | 0.00 | 0.00 | 29 | 1003.8 |
| 20260505033920 | 69 | 15 | 4.0 | 8.0 | 0.00 | 0.00 | 0.00 | 29 | 1003.8 |
| 20260505033822 | 69 | 15 | 3.0 | 8.0 | 0.00 | 0.00 | 0.00 | 29 | 1003.8 |
| 20260505033719 | 69 | 10 | 4.0 | 8.0 | 0.00 | 0.00 | 0.00 | 29 | 1003.8 |
| 20260505033623 | 69 | 10 | 4.0 | 8.0 | 0.00 | 0.00 | 0.00 | 29 | 1003.8 |
| 20260505033527 | 69 | 5 | 4.0 | 8.0 | 0.00 | 0.00 | 0.00 | 29 | 1003.8 |
| 20260505033423 | 69 | 10 | 4.0 | 8.0 | 0.00 | 0.00 | 0.00 | 29 | 1003.8 |
| 20260505033319 | 69 | 10 | 4.0 | 8.0 | 0.00 | 0.00 | 0.00 | 29 | 1003.8 |
| 20260505033245 | 69 | 21 | 4.0 | 10.0 | 0.00 | 0.00 | 0.00 | 29 | 1003.8 |
| 20260505033131 | 69 | 15 | 3.0 | 10.0 | 0.00 | 0.00 | 0.00 | 29 | 1003.8 |
| 20260505033049 | 70 | 15 | 3.0 | 10.0 | 0.00 | 0.00 | 0.00 | 29 | 1003.7 |
| 20260505032935 | 70 | 10 | 4.0 | 10.0 | 0.00 | 0.00 | 0.00 | 28 | 1003.7 |
| 20260505032832 | 70 | 349 | 5.0 | 12.0 | 0.00 | 0.00 | 0.00 | 28 | 1003.7 |
| 20260505032719 | 70 | 5 | 4.0 | 13.0 | 0.00 | 0.00 | 0.00 | 28 | 1003.7 |
| 20260505032615 | 70 | 10 | 5.0 | 13.0 | 0.00 | 0.00 | 0.00 | 28 | 1003.7 |
| 20260505032513 | 70 | 21 | 5.0 | 13.0 | 0.00 | 0.00 | 0.00 | 28 | 1003.7 |
| 20260505032421 | 70 | 353 | 4.0 | 13.0 | 0.00 | 0.00 | 0.00 | 28 | 1003.7 |
| 20260505032323 | 70 | 347 | 4.0 | 13.0 | 0.00 | 0.00 | 0.00 | 28 | 1003.7 |
| 20260505032230 | 70 | 353 | 5.0 | 13.0 | 0.00 | 0.00 | 0.00 | 28 | 1003.7 |
| 20260505032127 | 70 | 316 | 6.0 | 13.0 | 0.00 | 0.00 | 0.00 | 28 | 1003.6 |
| 20260505032033 | 70 | 24 | 7.0 | 13.0 | 0.00 | 0.00 | 0.00 | 28 | 1003.6 |
| 20260505031931 | 70 | 324 | 7.0 | 13.0 | 0.00 | 0.00 | 0.00 | 28 | 1003.6 |
| 20260505031826 | 70 | 15 | 6.0 | 11.0 | 0.00 | 0.00 | 0.00 | 28 | 1003.6 |
| 20260505031738 | 71 | 10 | 7.0 | 11.0 | 0.00 | 0.00 | 0.00 | 28 | 1003.6 |
| 20260505031614 | 71 | 348 | 5.0 | 11.0 | 0.00 | 0.00 | 0.00 | 28 | 1003.6 |
| 20260505031511 | 71 | 314 | 5.0 | 11.0 | 0.00 | 0.00 | 0.00 | 28 | 1003.6 |
| 20260505031417 | 71 | 337 | 5.0 | 11.0 | 0.00 | 0.00 | 0.00 | 28 | 1003.6 |
| 20260505031314 | 71 | 352 | 6.0 | 11.0 | 0.00 | 0.00 | 0.00 | 28 | 1003.5 |
| 20260505031222 | 71 | 358 | 7.0 | 11.0 | 0.00 | 0.00 | 0.00 | 28 | 1003.6 |
| 20260505031122 | 71 | 338 | 7.0 | 11.0 | 0.00 | 0.00 | 0.00 | 28 | 1003.6 |
| 20260505031018 | 71 | 359 | 6.0 | 12.0 | 0.00 | 0.00 | 0.00 | 28 | 1003.5 |
| 20260505030924 | 71 | 344 | 6.0 | 13.0 | 0.00 | 0.00 | 0.00 | 27 | 1003.5 |
| 20260505030827 | 71 | 26 | 5.0 | 15.0 | 0.00 | 0.00 | 0.00 | 27 | 1003.5 |
| 20260505030723 | 71 | 343 | 5.0 | 15.0 | 0.00 | 0.00 | 0.00 | 27 | 1003.4 |
| 20260505030650 | 71 | 353 | 6.0 | 15.0 | 0.00 | 0.00 | 0.00 | 27 | 1003.4 |
| 20260505030533 | 71 | 338 | 6.0 | 15.0 | 0.00 | 0.00 | 0.00 | 27 | 1003.5 |
| 20260505030411 | 72 | 22 | 6.0 | 15.0 | 0.00 | 0.00 | 0.00 | 27 | 1003.4 |
| 20260505030310 | 72 | 352 | 7.0 | 15.0 | 0.00 | 0.00 | 0.00 | 27 | 1003.4 |
| 20260505030238 | 72 | 358 | 8.0 | 15.0 | 0.00 | 0.00 | 0.00 | 26 | 1003.4 |
| 20260505030114 | 72 | 40 | 8.0 | 15.0 | 0.00 | 0.00 | 0.00 | 26 | 1003.4 |
| 20260505030011 | 72 | 25 | 7.0 | 15.0 | 0.00 | 0.00 | 0.00 | 26 | 1003.3 |
| 20260505025916 | 72 | 353 | 7.0 | 13.0 | 0.00 | 0.00 | 0.00 | 26 | 1003.3 |
| 20260505025813 | 72 | 10 | 7.0 | 13.0 | 0.00 | 0.00 | 0.00 | 26 | 1003.3 |
| 20260505025726 | 72 | 360 | 6.0 | 12.0 | 0.00 | 0.00 | 0.00 | 26 | 1003.3 |
| 20260505025620 | 72 | 350 | 6.0 | 17.0 | 0.00 | 0.00 | 0.00 | 25 | 1003.3 |
| 20260505025517 | 72 | 354 | 6.0 | 17.0 | 0.00 | 0.00 | 0.00 | 25 | 1003.3 |
| 20260505025444 | 72 | 347 | 7.0 | 17.0 | 0.00 | 0.00 | 0.00 | 25 | 1003.3 |
| 20260505025320 | 73 | 352 | 7.0 | 17.0 | 0.00 | 0.00 | 0.00 | 25 | 1003.3 |
| 20260505025223 | 73 | 302 | 6.0 | 17.0 | 0.00 | 0.00 | 0.00 | 25 | 1003.3 |
| 20260505025151 | 73 | 341 | 7.0 | 17.0 | 0.00 | 0.00 | 0.00 | 25 | 1003.3 |
| 20260505025025 | 73 | 327 | 6.0 | 17.0 | 0.00 | 0.00 | 0.00 | 25 | 1003.3 |
| 20260505024954 | 73 | 350 | 6.0 | 17.0 | 0.00 | 0.00 | 0.00 | 25 | 1003.3 |
| 20260505024859 | 73 | 343 | 7.0 | 17.0 | 0.00 | 0.00 | 0.00 | 24 | 1003.3 |
| 20260505024715 | 73 | 343 | 6.0 | 17.0 | 0.00 | 0.00 | 0.00 | 25 | 1003.3 |
| 20260505024611 | 73 | 5 | 6.0 | 15.0 | 0.00 | 0.00 | 0.00 | 24 | 1003.2 |
| 20260505024536 | 73 | 359 | 5.0 | 15.0 | 0.00 | 0.00 | 0.00 | 24 | 1003.2 |
| 20260505024442 | 73 | 357 | 6.0 | 15.0 | 0.00 | 0.00 | 0.00 | 24 | 1003.2 |
| 20260505024318 | 73 | 15 | 8.0 | 15.0 | 0.00 | 0.00 | 0.00 | 24 | 1003.2 |
| 20260505024246 | 74 | 348 | 8.0 | 15.0 | 0.00 | 0.00 | 0.00 | 24 | 1003.2 |
| 20260505024123 | 74 | 314 | 7.0 | 17.0 | 0.00 | 0.00 | 0.00 | 24 | 1003.2 |
| 20260505024030 | 74 | 22 | 8.0 | 19.0 | 0.00 | 0.00 | 0.00 | 24 | 1003.2 |
| 20260505023927 | 74 | 331 | 9.0 | 19.0 | 0.00 | 0.00 | 0.00 | 24 | 1003.2 |
| 20260505023833 | 74 | 346 | 8.0 | 19.0 | 0.00 | 0.00 | 0.00 | 24 | 1003.2 |
| 20260505023727 | 74 | 5 | 8.0 | 19.0 | 0.00 | 0.00 | 0.00 | 23 | 1003.2 |
| 20260505023634 | 74 | 32 | 9.0 | 19.0 | 0.00 | 0.00 | 0.00 | 23 | 1003.2 |
| 20260505023510 | 74 | 336 | 9.0 | 19.0 | 0.00 | 0.00 | 0.00 | 23 | 1003.1 |
| 20260505023412 | 74 | 19 | 10.0 | 19.0 | 0.00 | 0.00 | 0.00 | 23 | 1003.2 |
| 20260505023339 | 74 | 343 | 12.0 | 19.0 | 0.00 | 0.00 | 0.00 | 23 | 1003.2 |
| 20260505023243 | 75 | 23 | 10.0 | 19.0 | 0.00 | 0.00 | 0.00 | 23 | 1003.2 |
| 20260505023150 | 75 | 346 | 10.0 | 17.0 | 0.00 | 0.00 | 0.00 | 23 | 1003.2 |
| 20260505023024 | 75 | 323 | 11.0 | 17.0 | 0.00 | 0.00 | 0.00 | 23 | 1003.2 |
| 20260505022922 | 75 | 358 | 10.0 | 17.0 | 0.00 | 0.00 | 0.00 | 22 | 1003.2 |
| 20260505022826 | 75 | 339 | 8.0 | 17.0 | 0.00 | 0.00 | 0.00 | 22 | 1003.2 |
| 20260505022750 | 75 | 348 | 9.0 | 17.0 | 0.00 | 0.00 | 0.00 | 22 | 1003.2 |
| 20260505022630 | 75 | 321 | 9.0 | 17.0 | 0.00 | 0.00 | 0.00 | 22 | 1003.2 |
| 20260505022534 | 75 | 10 | 9.0 | 16.0 | 0.00 | 0.00 | 0.00 | 22 | 1003.1 |
| 20260505022428 | 75 | 353 | 9.0 | 16.0 | 0.00 | 0.00 | 0.00 | 22 | 1003.2 |
| 20260505022331 | 75 | 339 | 9.0 | 16.0 | 0.00 | 0.00 | 0.00 | 22 | 1003.2 |
| 20260505022224 | 76 | 332 | 9.0 | 15.0 | 0.00 | 0.00 | 0.00 | 21 | 1003.1 |
| 20260505022132 | 76 | 26 | 10.0 | 15.0 | 0.00 | 0.00 | 0.00 | 21 | 1003.1 |
| 20260505022047 | 76 | 15 | 9.0 | 20.0 | 0.00 | 0.00 | 0.00 | 21 | 1003.2 |
| 20260505021931 | 76 | 359 | 7.0 | 20.0 | 0.00 | 0.00 | 0.00 | 22 | 1003.2 |
| 20260505021813 | 76 | 356 | 5.0 | 20.0 | 0.00 | 0.00 | 0.00 | 22 | 1003.1 |
| 20260505021741 | 76 | 343 | 6.0 | 20.0 | 0.00 | 0.00 | 0.00 | 22 | 1003.1 |
| 20260505021616 | 76 | 344 | 9.0 | 20.0 | 0.00 | 0.00 | 0.00 | 21 | 1003.2 |
| 20260505021523 | 76 | 329 | 10.0 | 20.0 | 0.00 | 0.00 | 0.00 | 21 | 1003.1 |
| 20260505021429 | 76 | 328 | 10.0 | 20.0 | 0.00 | 0.00 | 0.00 | 21 | 1003.1 |
| 20260505021333 | 76 | 351 | 11.0 | 20.0 | 0.00 | 0.00 | 0.00 | 21 | 1003.1 |
| 20260505021211 | 76 | 320 | 11.0 | 20.0 | 0.00 | 0.00 | 0.00 | 21 | 1003.1 |
| 20260505021130 | 76 | 324 | 11.0 | 18.0 | 0.00 | 0.00 | 0.00 | 21 | 1003.1 |
| 20260505021016 | 76 | 5 | 10.0 | 18.0 | 0.00 | 0.00 | 0.00 | 21 | 1003.1 |
| 20260505020933 | 76 | 333 | 9.0 | 17.0 | 0.00 | 0.00 | 0.00 | 21 | 1003.2 |
| 20260505020818 | 76 | 25 | 9.0 | 17.0 | 0.00 | 0.00 | 0.00 | 21 | 1003.2 |
| 20260505020717 | 76 | 339 | 9.0 | 17.0 | 0.00 | 0.00 | 0.00 | 20 | 1003.1 |
| 20260505020620 | 76 | 309 | 10.0 | 17.0 | 0.00 | 0.00 | 0.00 | 21 | 1003.2 |
| 20260505020517 | 76 | 358 | 10.0 | 22.0 | 0.00 | 0.00 | 0.00 | 20 | 1003.2 |
| 20260505020427 | 77 | 15 | 10.0 | 22.0 | 0.00 | 0.00 | 0.00 | 20 | 1003.2 |
| 20260505020353 | 77 | 326 | 11.0 | 22.0 | 0.00 | 0.00 | 0.00 | 20 | 1003.2 |
| 20260505020301 | 77 | 331 | 10.0 | 22.0 | 0.00 | 0.00 | 0.00 | 20 | 1003.2 |
| 20260505020116 | 77 | 318 | 10.0 | 22.0 | 0.00 | 0.00 | 0.00 | 19 | 1003.1 |
| 20260505020014 | 77 | 342 | 9.0 | 22.0 | 0.00 | 0.00 | 0.00 | 19 | 1003.1 |
| 20260505015911 | 77 | 337 | 9.0 | 22.0 | 0.00 | 0.00 | 0.00 | 19 | 1003.0 |
| 20260505015817 | 77 | 318 | 11.0 | 22.0 | 0.00 | 0.00 | 0.00 | 19 | 1003.0 |
| 20260505015719 | 77 | 312 | 12.0 | 22.0 | 0.00 | 0.00 | 0.00 | 19 | 1003.0 |
| 20260505015621 | 77 | 358 | 13.0 | 22.0 | 0.00 | 0.00 | 0.00 | 19 | 1003.0 |
| 20260505015518 | 77 | 331 | 11.0 | 20.0 | 0.00 | 0.00 | 0.00 | 19 | 1003.1 |
| 20260505015424 | 77 | 323 | 9.0 | 18.0 | 0.00 | 0.00 | 0.00 | 19 | 1003.1 |
| 20260505015322 | 77 | 356 | 11.0 | 18.0 | 0.00 | 0.00 | 0.00 | 19 | 1003.1 |
| 20260505015219 | 77 | 328 | 12.0 | 18.0 | 0.00 | 0.00 | 0.00 | 19 | 1003.1 |
| 20260505015122 | 77 | 325 | 12.0 | 18.0 | 0.00 | 0.00 | 0.00 | 19 | 1003.1 |
| 20260505015032 | 78 | 348 | 11.0 | 18.0 | 0.00 | 0.00 | 0.00 | 19 | 1003.1 |
| 20260505014929 | 78 | 335 | 11.0 | 18.0 | 0.00 | 0.00 | 0.00 | 19 | 1003.1 |
| 20260505014826 | 78 | 352 | 10.0 | 16.0 | 0.00 | 0.00 | 0.00 | 19 | 1003.1 |
| 20260505014714 | 78 | 358 | 9.0 | 16.0 | 0.00 | 0.00 | 0.00 | 19 | 1003.1 |
| 20260505014630 | 78 | 337 | 10.0 | 16.0 | 0.00 | 0.00 | 0.00 | 19 | 1003.1 |
| 20260505014534 | 78 | 329 | 12.0 | 17.0 | 0.00 | 0.00 | 0.00 | 19 | 1003.1 |
| 20260505014414 | 78 | 10 | 12.0 | 20.0 | 0.00 | 0.00 | 0.00 | 19 | 1003.1 |
| 20260505014312 | 78 | 346 | 11.0 | 20.0 | 0.00 | 0.00 | 0.00 | 19 | 1003.1 |
| 20260505014218 | 78 | 323 | 10.0 | 20.0 | 0.00 | 0.00 | 0.00 | 19 | 1003.1 |
| 20260505014114 | 78 | 357 | 8.0 | 20.0 | 0.00 | 0.00 | 0.00 | 20 | 1003.1 |
| 20260505014020 | 78 | 302 | 9.0 | 20.0 | 0.00 | 0.00 | 0.00 | 20 | 1003.1 |
| 20260505013916 | 78 | 15 | 10.0 | 20.0 | 0.00 | 0.00 | 0.00 | 20 | 1003.1 |
| 20260505013823 | 78 | 349 | 11.0 | 20.0 | 0.00 | 0.00 | 0.00 | 20 | 1003.1 |
| 20260505013725 | 78 | 357 | 12.0 | 20.0 | 0.00 | 0.00 | 0.00 | 20 | 1003.2 |
| 20260505013633 | 78 | 327 | 13.0 | 20.0 | 0.00 | 0.00 | 0.00 | 20 | 1003.2 |
| 20260505013547 | 78 | 30 | 11.0 | 19.0 | 0.00 | 0.00 | 0.00 | 20 | 1003.1 |
| 20260505013432 | 78 | 327 | 11.0 | 18.0 | 0.00 | 0.00 | 0.00 | 20 | 1003.1 |
| 20260505013329 | 78 | 40 | 13.0 | 18.0 | 0.00 | 0.00 | 0.00 | 20 | 1003.1 |
| 20260505013239 | 79 | 325 | 11.0 | 17.0 | 0.00 | 0.00 | 0.00 | 20 | 1003.1 |
| 20260505013132 | 79 | 346 | 10.0 | 17.0 | 0.00 | 0.00 | 0.00 | 20 | 1003.1 |
| 20260505013012 | 79 | 347 | 9.0 | 17.0 | 0.00 | 0.00 | 0.00 | 20 | 1003.1 |
| 20260505012919 | 79 | 27 | 8.0 | 17.0 | 0.00 | 0.00 | 0.00 | 20 | 1003.1 |
| 20260505012846 | 79 | 343 | 9.0 | 17.0 | 0.00 | 0.00 | 0.00 | 21 | 1003.0 |
| 20260505012724 | 79 | 357 | 9.0 | 19.0 | 0.00 | 0.00 | 0.00 | 21 | 1003.1 |
| 20260505012620 | 79 | 36 | 10.0 | 19.0 | 0.00 | 0.00 | 0.00 | 21 | 1003.1 |
| 20260505012527 | 79 | 356 | 11.0 | 19.0 | 0.00 | 0.00 | 0.00 | 21 | 1003.1 |
| 20260505012425 | 79 | 334 | 10.0 | 19.0 | 0.00 | 0.00 | 0.00 | 21 | 1003.1 |
| 20260505012336 | 79 | 326 | 10.0 | 19.0 | 0.00 | 0.00 | 0.00 | 21 | 1003.1 |
| 20260505012212 | 79 | 347 | 11.0 | 19.0 | 0.00 | 0.00 | 0.00 | 20 | 1003.2 |
| 20260505012141 | 79 | 23 | 11.0 | 19.0 | 0.00 | 0.00 | 0.00 | 20 | 1003.2 |
| 20260505012016 | 79 | 323 | 12.0 | 19.0 | 0.00 | 0.00 | 0.00 | 20 | 1003.1 |
| 20260505011912 | 79 | 339 | 11.0 | 19.0 | 0.00 | 0.00 | 0.00 | 20 | 1003.1 |
| 20260505011819 | 79 | 332 | 9.0 | 18.0 | 0.00 | 0.00 | 0.00 | 20 | 1003.2 |
| 20260505011715 | 79 | 337 | 9.0 | 18.0 | 0.00 | 0.00 | 0.00 | 20 | 1003.1 |
| 20260505011623 | 79 | 333 | 10.0 | 19.0 | 0.00 | 0.00 | 0.00 | 21 | 1003.1 |
| 20260505011549 | 79 | 360 | 12.0 | 19.0 | 0.00 | 0.00 | 0.00 | 20 | 1003.1 |
| 20260505011425 | 80 | 346 | 12.0 | 19.0 | 0.00 | 0.00 | 0.00 | 20 | 1003.1 |
| 20260505011321 | 80 | 350 | 12.0 | 19.0 | 0.00 | 0.00 | 0.00 | 21 | 1003.1 |
| 20260505011230 | 80 | 341 | 12.0 | 19.0 | 0.00 | 0.00 | 0.00 | 21 | 1003.1 |
| 20260505011126 | 80 | 346 | 10.0 | 19.0 | 0.00 | 0.00 | 0.00 | 21 | 1003.1 |
| 20260505011031 | 80 | 346 | 8.0 | 20.0 | 0.00 | 0.00 | 0.00 | 21 | 1003.1 |
| 20260505010912 | 80 | 5 | 11.0 | 20.0 | 0.00 | 0.00 | 0.00 | 20 | 1003.1 |
| 20260505010838 | 80 | 354 | 12.0 | 20.0 | 0.00 | 0.00 | 0.00 | 20 | 1003.1 |
| 20260505010717 | 80 | 340 | 12.0 | 20.0 | 0.00 | 0.00 | 0.00 | 20 | 1003.1 |
| 20260505010632 | 80 | 303 | 11.0 | 20.0 | 0.00 | 0.00 | 0.00 | 20 | 1003.1 |
| 20260505010538 | 80 | 358 | 11.0 | 20.0 | 0.00 | 0.00 | 0.00 | 21 | 1003.1 |
| 20260505010424 | 80 | 353 | 9.0 | 20.0 | 0.00 | 0.00 | 0.00 | 21 | 1003.2 |
| 20260505010321 | 80 | 15 | 10.0 | 20.0 | 0.00 | 0.00 | 0.00 | 21 | 1003.1 |
| 20260505010222 | 80 | 19 | 12.0 | 20.0 | 0.00 | 0.00 | 0.00 | 21 | 1003.1 |
| 20260505010149 | 80 | 346 | 11.0 | 20.0 | 0.00 | 0.00 | 0.00 | 21 | 1003.1 |
| 20260505010034 | 81 | 333 | 12.0 | 20.0 | 0.00 | 0.00 | 0.00 | 21 | 1003.1 |
| 20260505005951 | 81 | 5 | 11.0 | 20.0 | 0.00 | 0.00 | 0.00 | 21 | 1003.1 |
| 20260505005834 | 81 | 335 | 11.0 | 19.0 | 0.00 | 0.00 | 0.00 | 21 | 1003.2 |
| 20260505005711 | 81 | 321 | 11.0 | 19.0 | 0.00 | 0.00 | 0.00 | 21 | 1003.2 |
| 20260505005637 | 81 | 318 | 11.0 | 19.0 | 0.00 | 0.00 | 0.00 | 21 | 1003.2 |
| 20260505005517 | 81 | 340 | 11.0 | 19.0 | 0.00 | 0.00 | 0.00 | 21 | 1003.1 |
| 20260505005422 | 81 | 344 | 11.0 | 19.0 | 0.00 | 0.00 | 0.00 | 21 | 1003.1 |
| 20260505005339 | 81 | 5 | 10.0 | 19.0 | 0.00 | 0.00 | 0.00 | 22 | 1003.1 |
| 20260505005226 | 81 | 5 | 10.0 | 19.0 | 0.00 | 0.00 | 0.00 | 21 | 1003.1 |
| 20260505005154 | 81 | 15 | 10.0 | 19.0 | 0.00 | 0.00 | 0.00 | 21 | 1003.1 |
| 20260505005048 | 81 | 335 | 11.0 | 21.0 | 0.00 | 0.00 | 0.00 | 21 | 1003.1 |
| 20260505004933 | 81 | 338 | 11.0 | 21.0 | 0.00 | 0.00 | 0.00 | 21 | 1003.1 |
| 20260505004830 | 81 | 316 | 9.0 | 21.0 | 0.00 | 0.00 | 0.00 | 21 | 1003.1 |
| 20260505004717 | 81 | 302 | 8.0 | 21.0 | 0.00 | 0.00 | 0.00 | 21 | 1003.1 |
| 20260505004617 | 81 | 321 | 7.0 | 21.0 | 0.00 | 0.00 | 0.00 | 21 | 1003.1 |
| 20260505004543 | 81 | 338 | 7.0 | 21.0 | 0.00 | 0.00 | 0.00 | 21 | 1003.1 |
| 20260505004418 | 81 | 312 | 10.0 | 21.0 | 0.00 | 0.00 | 0.00 | 21 | 1003.2 |
| 20260505004324 | 81 | 308 | 11.0 | 21.0 | 0.00 | 0.00 | 0.00 | 21 | 1003.2 |
| 20260505004244 | 81 | 325 | 10.0 | 21.0 | 0.00 | 0.00 | 0.00 | 21 | 1003.2 |
| 20260505004126 | 81 | 310 | 10.0 | 19.0 | 0.00 | 0.00 | 0.00 | 23 | 1003.2 |
| 20260505004022 | 81 | 29 | 10.0 | 18.0 | 0.00 | 0.00 | 0.00 | 22 | 1003.2 |
| 20260505003932 | 81 | 15 | 10.0 | 18.0 | 0.00 | 0.00 | 0.00 | 22 | 1003.2 |
| 20260505003849 | 81 | 21 | 10.0 | 18.0 | 0.00 | 0.00 | 0.00 | 22 | 1003.1 |
| 20260505003732 | 81 | 325 | 11.0 | 18.0 | 0.00 | 0.00 | 0.00 | 22 | 1003.2 |
| 20260505003631 | 81 | 21 | 11.0 | 18.0 | 0.00 | 0.00 | 0.00 | 22 | 1003.2 |
| 20260505003536 | 81 | 354 | 13.0 | 18.0 | 0.00 | 0.00 | 0.00 | 21 | 1003.2 |
| 20260505003412 | 81 | 10 | 11.0 | 18.0 | 0.00 | 0.00 | 0.00 | 22 | 1003.2 |
| 20260505003338 | 81 | 331 | 11.0 | 18.0 | 0.00 | 0.00 | 0.00 | 22 | 1003.2 |
| 20260505003222 | 81 | 308 | 8.0 | 15.0 | 0.00 | 0.00 | 0.00 | 22 | 1003.1 |
| 20260505003117 | 81 | 347 | 8.0 | 17.0 | 0.00 | 0.00 | 0.00 | 22 | 1003.1 |
| 20260505003024 | 81 | 346 | 10.0 | 17.0 | 0.00 | 0.00 | 0.00 | 22 | 1003.1 |
| 20260505002921 | 81 | 314 | 10.0 | 17.0 | 0.00 | 0.00 | 0.00 | 22 | 1003.1 |
| 20260505002827 | 81 | 332 | 9.0 | 17.0 | 0.00 | 0.00 | 0.00 | 22 | 1003.1 |
| 20260505002723 | 81 | 326 | 8.0 | 17.0 | 0.00 | 0.00 | 0.00 | 21 | 1003.1 |
| 20260505002650 | 81 | 317 | 9.0 | 17.0 | 0.00 | 0.00 | 0.00 | 21 | 1003.1 |
| 20260505002528 | 81 | 300 | 9.0 | 17.0 | 0.00 | 0.00 | 0.00 | 21 | 1003.1 |
| 20260505002412 | 82 | 339 | 12.0 | 17.0 | 0.00 | 0.00 | 0.00 | 21 | 1003.1 |
| 20260505002327 | 82 | 322 | 10.0 | 17.0 | 0.00 | 0.00 | 0.00 | 22 | 1003.1 |
| 20260505002236 | 82 | 329 | 9.0 | 16.0 | 0.00 | 0.00 | 0.00 | 22 | 1003.2 |
| 20260505002110 | 81 | 315 | 10.0 | 16.0 | 0.00 | 0.00 | 0.00 | 21 | 1003.1 |
| 20260505002037 | 81 | 309 | 11.0 | 16.0 | 0.00 | 0.00 | 0.00 | 21 | 1003.1 |
| 20260505001935 | 81 | 287 | 7.0 | 15.0 | 0.00 | 0.00 | 0.00 | 22 | 1003.1 |
| 20260505001816 | 81 | 300 | 7.0 | 16.0 | 0.00 | 0.00 | 0.00 | 21 | 1003.0 |
| 20260505001721 | 81 | 328 | 9.0 | 16.0 | 0.00 | 0.00 | 0.00 | 21 | 1003.1 |